| time (UTC) | temp F | wind direction | speed MPH | gust MPH | rain 1hr in | rain 24hr in | rain mn in | humidity % | barometer mb |
| 20260504192004 | 85 | 260 | 2.0 | 3.0 | 0.00 | 0.02 | 0.00 | 60 | 1018.1 |
| 20260504191925 | 85 | 260 | 2.0 | 3.0 | 0.00 | 0.02 | 0.00 | 60 | 1018.0 |
| 20260504191803 | 85 | 257 | 1.0 | 3.0 | 0.00 | 0.02 | 0.00 | 60 | 1018.3 |
| 20260504191725 | 85 | 252 | 1.0 | 3.0 | 0.00 | 0.02 | 0.00 | 60 | 1018.1 |
| 20260504191604 | 85 | 242 | 1.0 | 2.0 | 0.00 | 0.02 | 0.00 | 60 | 1018.3 |
| 20260504191504 | 85 | 234 | 1.0 | 2.0 | 0.00 | 0.02 | 0.00 | 60 | 1018.3 |
| 20260504191403 | 85 | 224 | 1.0 | 2.0 | 0.00 | 0.02 | 0.00 | 60 | 1018.1 |
| 20260504191303 | 85 | 220 | 1.0 | 2.0 | 0.00 | 0.02 | 0.00 | 60 | 1018.3 |
| 20260504191204 | 85 | 216 | 1.0 | 2.0 | 0.00 | 0.02 | 0.00 | 60 | 1018.3 |
| 20260504191103 | 85 | 216 | 1.0 | 2.0 | 0.00 | 0.02 | 0.00 | 60 | 1018.3 |
| 20260504191004 | 85 | 212 | 1.0 | 2.0 | 0.00 | 0.02 | 0.00 | 60 | 1018.3 |
| 20260504190903 | 85 | 209 | 1.0 | 2.0 | 0.00 | 0.02 | 0.00 | 60 | 1018.1 |
| 20260504190803 | 85 | 207 | 1.0 | 2.0 | 0.00 | 0.02 | 0.00 | 60 | 1018.4 |
| 20260504190724 | 85 | 202 | 1.0 | 2.0 | 0.00 | 0.02 | 0.00 | 60 | 1018.4 |
| 20260504190624 | 85 | 196 | 2.0 | 2.0 | 0.00 | 0.02 | 0.00 | 60 | 1018.5 |
| 20260504190524 | 85 | 193 | 2.0 | 2.0 | 0.00 | 0.02 | 0.00 | 60 | 1018.5 |
| 20260504190403 | 85 | 190 | 2.0 | 2.0 | 0.00 | 0.02 | 0.00 | 60 | 1018.4 |
| 20260504190303 | 85 | 188 | 1.0 | 2.0 | 0.00 | 0.02 | 0.00 | 60 | 1018.5 |
| 20260504190203 | 85 | 186 | 1.0 | 2.0 | 0.00 | 0.02 | 0.00 | 60 | 1018.5 |
| 20260504190103 | 85 | 184 | 1.0 | 2.0 | 0.00 | 0.02 | 0.00 | 60 | 1018.5 |
| 20260504190004 | 85 | 181 | 1.0 | 2.0 | 0.00 | 0.02 | 0.00 | 60 | 1018.5 |
| 20260504185925 | 85 | 181 | 1.0 | 2.0 | 0.00 | 0.02 | 0.00 | 60 | 1018.5 |
| 20260504185804 | 85 | 186 | 1.0 | 2.0 | 0.00 | 0.02 | 0.00 | 60 | 1018.4 |
| 20260504185704 | 85 | 192 | 1.0 | 2.0 | 0.00 | 0.02 | 0.00 | 60 | 1018.6 |
| 20260504185604 | 85 | 199 | 1.0 | 2.0 | 0.00 | 0.02 | 0.00 | 60 | 1018.5 |
| 20260504185504 | 85 | 202 | 1.0 | 2.0 | 0.00 | 0.02 | 0.00 | 60 | 1018.4 |
| 20260504185404 | 85 | 201 | 1.0 | 2.0 | 0.00 | 0.02 | 0.00 | 60 | 1018.6 |
| 20260504185304 | 85 | 202 | 1.0 | 2.0 | 0.00 | 0.02 | 0.00 | 60 | 1018.6 |
| 20260504185203 | 85 | 203 | 1.0 | 2.0 | 0.00 | 0.02 | 0.00 | 60 | 1018.5 |
| 20260504185124 | 85 | 203 | 1.0 | 2.0 | 0.00 | 0.02 | 0.00 | 60 | 1018.5 |
| 20260504185003 | 85 | 205 | 1.0 | 2.0 | 0.00 | 0.02 | 0.00 | 60 | 1018.6 |
| 20260504184903 | 85 | 209 | 1.0 | 2.0 | 0.00 | 0.02 | 0.00 | 60 | 1018.7 |
| 20260504184803 | 85 | 211 | 0.0 | 2.0 | 0.00 | 0.02 | 0.00 | 60 | 1018.4 |
| 20260504184703 | 85 | 206 | 0.0 | 2.0 | 0.00 | 0.02 | 0.00 | 60 | 1018.4 |
| 20260504184604 | 85 | 202 | 0.0 | 2.0 | 0.00 | 0.02 | 0.00 | 60 | 1018.4 |
| 20260504184525 | 85 | 198 | 0.0 | 2.0 | 0.00 | 0.02 | 0.00 | 60 | 1018.3 |
| 20260504184424 | 85 | 198 | 0.0 | 2.0 | 0.00 | 0.02 | 0.00 | 60 | 1018.5 |
| 20260504184303 | 85 | 198 | 0.0 | 2.0 | 0.00 | 0.02 | 0.00 | 60 | 1018.3 |
| 20260504184204 | 85 | 196 | 0.0 | 2.0 | 0.00 | 0.02 | 0.00 | 60 | 1018.4 |
| 20260504184103 | 85 | 196 | 0.0 | 2.0 | 0.00 | 0.02 | 0.00 | 60 | 1018.5 |
| 20260504184005 | 85 | 0 | 0.0 | 0.0 | 0.00 | 0.02 | 0.00 | 60 | 1018.5 |
| 20260504183703 | 85 | 0 | 0.0 | 0.0 | 0.00 | 0.02 | 0.00 | 60 | 1018.4 |
| 20260504183603 | 85 | 0 | 0.0 | 0.0 | 0.00 | 0.02 | 0.00 | 60 | 1018.5 |
| 20260504183503 | 85 | 0 | 0.0 | 0.0 | 0.00 | 0.02 | 0.00 | 60 | 1018.4 |
| 20260504183424 | 85 | 0 | 0.0 | 0.0 | 0.00 | 0.02 | 0.00 | 60 | 1018.4 |
| 20260504183325 | 85 | 0 | 0.0 | 0.0 | 0.00 | 0.02 | 0.00 | 60 | 1018.4 |
| 20260504183204 | 85 | 0 | 0.0 | 0.0 | 0.00 | 0.02 | 0.00 | 60 | 1018.6 |
| 20260504183103 | 85 | 0 | 0.0 | 0.0 | 0.00 | 0.02 | 0.00 | 60 | 1018.5 |
| 20260504183004 | 85 | 0 | 0.0 | 0.0 | 0.00 | 0.02 | 0.00 | 60 | 1018.5 |
| 20260504182904 | 85 | 0 | 0.0 | 0.0 | 0.00 | 0.02 | 0.02 | 60 | 1018.5 |
| 20260504182803 | 85 | 0 | 0.0 | 0.0 | 0.00 | 0.02 | 0.02 | 60 | 1018.5 |
| 20260504182703 | 85 | 0 | 0.0 | 0.0 | 0.00 | 0.02 | 0.02 | 60 | 1018.4 |
| 20260504182604 | 85 | 0 | 0.0 | 0.0 | 0.00 | 0.02 | 0.02 | 60 | 1018.4 |
| 20260504182503 | 85 | 0 | 0.0 | 0.0 | 0.00 | 0.02 | 0.02 | 60 | 1018.5 |
| 20260504182403 | 85 | 0 | 0.0 | 0.0 | 0.00 | 0.02 | 0.02 | 60 | 1018.5 |
| 20260504182304 | 85 | 0 | 0.0 | 0.0 | 0.00 | 0.02 | 0.02 | 60 | 1018.6 |
| 20260504182205 | 85 | 0 | 0.0 | 0.0 | 0.00 | 0.02 | 0.02 | 60 | 1018.4 |
| 20260504182103 | 85 | 0 | 0.0 | 0.0 | 0.00 | 0.02 | 0.02 | 60 | 1018.4 |
| 20260504182003 | 85 | 0 | 0.0 | 0.0 | 0.00 | 0.02 | 0.02 | 60 | 1018.5 |
| 20260504181903 | 85 | 0 | 0.0 | 0.0 | 0.00 | 0.02 | 0.02 | 60 | 1018.4 |
| 20260504181804 | 85 | 0 | 0.0 | 0.0 | 0.00 | 0.02 | 0.02 | 60 | 1018.4 |
| 20260504181725 | 85 | 0 | 0.0 | 0.0 | 0.00 | 0.02 | 0.02 | 60 | 1018.3 |
| 20260504181603 | 85 | 0 | 0.0 | 0.0 | 0.00 | 0.02 | 0.02 | 60 | 1018.4 |
| 20260504181503 | 85 | 196 | 0.0 | 2.0 | 0.00 | 0.02 | 0.02 | 60 | 1018.4 |
| 20260504181403 | 85 | 187 | 0.0 | 2.0 | 0.00 | 0.02 | 0.02 | 60 | 1018.4 |
| 20260504181303 | 85 | 184 | 0.0 | 2.0 | 0.00 | 0.02 | 0.02 | 60 | 1018.5 |
| 20260504181204 | 85 | 177 | 0.0 | 2.0 | 0.00 | 0.02 | 0.02 | 60 | 1018.4 |
| 20260504181103 | 85 | 173 | 1.0 | 2.0 | 0.00 | 0.02 | 0.02 | 60 | 1018.6 |
| 20260504181004 | 85 | 172 | 1.0 | 2.0 | 0.00 | 0.02 | 0.02 | 60 | 1018.5 |
| 20260504180903 | 85 | 171 | 1.0 | 2.0 | 0.00 | 0.02 | 0.02 | 60 | 1018.5 |
| 20260504180824 | 85 | 170 | 1.0 | 2.0 | 0.00 | 0.02 | 0.02 | 60 | 1018.5 |
| 20260504180704 | 85 | 169 | 1.0 | 2.0 | 0.00 | 0.02 | 0.02 | 60 | 1018.5 |
| 20260504180624 | 85 | 169 | 1.0 | 2.0 | 0.00 | 0.02 | 0.02 | 60 | 1018.5 |
| 20260504180505 | 85 | 159 | 2.0 | 2.0 | 0.00 | 0.02 | 0.02 | 60 | 1018.6 |
| 20260504180424 | 85 | 156 | 2.0 | 2.0 | 0.00 | 0.02 | 0.02 | 60 | 1018.4 |
| 20260504180304 | 85 | 151 | 2.0 | 2.0 | 0.00 | 0.02 | 0.02 | 60 | 1018.5 |
| 20260504180203 | 85 | 150 | 2.0 | 2.0 | 0.00 | 0.02 | 0.02 | 60 | 1018.4 |
| 20260504180104 | 85 | 149 | 1.0 | 2.0 | 0.00 | 0.02 | 0.02 | 60 | 1018.5 |
| 20260504180004 | 85 | 147 | 1.0 | 2.0 | 0.00 | 0.02 | 0.02 | 60 | 1018.7 |
| 20260504175903 | 85 | 145 | 1.0 | 2.0 | 0.00 | 0.02 | 0.02 | 60 | 1018.6 |
| 20260504175803 | 85 | 141 | 1.0 | 2.0 | 0.00 | 0.02 | 0.02 | 60 | 1018.6 |
| 20260504175704 | 85 | 136 | 1.0 | 2.0 | 0.00 | 0.02 | 0.02 | 60 | 1018.6 |
| 20260504175603 | 85 | 121 | 1.0 | 2.0 | 0.00 | 0.02 | 0.02 | 60 | 1018.8 |
| 20260504175504 | 85 | 115 | 0.0 | 2.0 | 0.00 | 0.02 | 0.02 | 60 | 1018.6 |
| 20260504175404 | 85 | 106 | 0.0 | 2.0 | 0.00 | 0.02 | 0.02 | 60 | 1018.6 |
| 20260504175304 | 85 | 0 | 0.0 | 0.0 | 0.00 | 0.02 | 0.02 | 60 | 1018.6 |
| 20260504175204 | 85 | 0 | 0.0 | 0.0 | 0.00 | 0.02 | 0.02 | 60 | 1018.4 |
| 20260504175103 | 85 | 0 | 0.0 | 0.0 | 0.00 | 0.02 | 0.02 | 60 | 1018.6 |
| 20260504175003 | 85 | 0 | 0.0 | 0.0 | 0.00 | 0.02 | 0.02 | 60 | 1018.5 |
| 20260504174924 | 85 | 0 | 0.0 | 0.0 | 0.00 | 0.02 | 0.02 | 60 | 1018.6 |
| 20260504174826 | 85 | 0 | 0.0 | 0.0 | 0.00 | 0.02 | 0.02 | 60 | 1018.6 |
| 20260504174703 | 85 | 0 | 0.0 | 0.0 | 0.00 | 0.02 | 0.02 | 60 | 1018.4 |
| 20260504174603 | 85 | 0 | 0.0 | 0.0 | 0.00 | 0.02 | 0.02 | 60 | 1018.5 |
| 20260504174525 | 85 | 0 | 0.0 | 0.0 | 0.00 | 0.02 | 0.02 | 60 | 1018.4 |
| 20260504174403 | 85 | 0 | 0.0 | 0.0 | 0.00 | 0.02 | 0.02 | 60 | 1018.4 |
| 20260504174304 | 85 | 0 | 0.0 | 0.0 | 0.00 | 0.02 | 0.02 | 60 | 1018.4 |
| 20260504174224 | 85 | 0 | 0.0 | 0.0 | 0.00 | 0.02 | 0.02 | 60 | 1018.6 |
| 20260504174103 | 85 | 0 | 0.0 | 0.0 | 0.00 | 0.02 | 0.02 | 60 | 1018.5 |
| 20260504174003 | 85 | 0 | 0.0 | 0.0 | 0.00 | 0.02 | 0.02 | 60 | 1018.5 |
| 20260504173903 | 85 | 0 | 0.0 | 0.0 | 0.00 | 0.02 | 0.02 | 60 | 1018.6 |
| 20260504173803 | 85 | 0 | 0.0 | 0.0 | 0.00 | 0.02 | 0.02 | 60 | 1018.5 |
| 20260504173724 | 85 | 0 | 0.0 | 0.0 | 0.00 | 0.02 | 0.02 | 60 | 1018.7 |
| 20260504173603 | 85 | 0 | 0.0 | 0.0 | 0.00 | 0.02 | 0.02 | 60 | 1018.5 |
| 20260504173503 | 85 | 0 | 0.0 | 0.0 | 0.00 | 0.02 | 0.02 | 60 | 1018.7 |
| 20260504173403 | 85 | 0 | 0.0 | 0.0 | 0.00 | 0.02 | 0.02 | 60 | 1018.7 |
| 20260504173304 | 85 | 281 | 0.0 | 1.0 | 0.00 | 0.02 | 0.02 | 60 | 1018.8 |
| 20260504173203 | 85 | 280 | 0.0 | 1.0 | 0.00 | 0.02 | 0.02 | 60 | 1018.8 |
| 20260504173103 | 85 | 280 | 0.0 | 1.0 | 0.00 | 0.02 | 0.02 | 60 | 1018.7 |
| 20260504173005 | 85 | 280 | 0.0 | 1.0 | 0.00 | 0.02 | 0.02 | 60 | 1018.5 |
| 20260504172904 | 85 | 280 | 0.0 | 1.0 | 0.00 | 0.02 | 0.02 | 60 | 1018.6 |
| 20260504172804 | 85 | 279 | 0.0 | 1.0 | 0.00 | 0.02 | 0.02 | 60 | 1018.8 |
| 20260504172703 | 85 | 279 | 0.0 | 1.0 | 0.00 | 0.02 | 0.02 | 60 | 1018.7 |
| 20260504172603 | 85 | 279 | 0.0 | 1.0 | 0.00 | 0.02 | 0.02 | 60 | 1018.6 |
| 20260504172504 | 85 | 279 | 0.0 | 1.0 | 0.00 | 0.02 | 0.02 | 60 | 1018.5 |
| 20260504172403 | 85 | 279 | 0.0 | 1.0 | 0.00 | 0.02 | 0.02 | 60 | 1018.6 |
| 20260504172304 | 85 | 279 | 0.0 | 1.0 | 0.00 | 0.02 | 0.02 | 60 | 1018.6 |
| 20260504172203 | 85 | 279 | 0.0 | 1.0 | 0.00 | 0.02 | 0.02 | 60 | 1018.7 |
| 20260504172124 | 85 | 278 | 0.0 | 2.0 | 0.00 | 0.02 | 0.02 | 60 | 1018.8 |
| 20260504172024 | 85 | 274 | 0.0 | 2.0 | 0.00 | 0.02 | 0.02 | 60 | 1018.8 |
| 20260504171904 | 85 | 270 | 1.0 | 2.0 | 0.00 | 0.02 | 0.02 | 60 | 1018.8 |
| 20260504171824 | 85 | 270 | 1.0 | 2.0 | 0.00 | 0.02 | 0.02 | 60 | 1018.8 |
| 20260504171703 | 85 | 264 | 1.0 | 2.0 | 0.00 | 0.02 | 0.02 | 60 | 1018.6 |
| 20260504171603 | 85 | 265 | 1.0 | 2.0 | 0.00 | 0.02 | 0.02 | 60 | 1018.6 |
| 20260504171504 | 85 | 265 | 1.0 | 2.0 | 0.00 | 0.02 | 0.02 | 60 | 1018.8 |
| 20260504171403 | 85 | 260 | 1.0 | 2.0 | 0.00 | 0.02 | 0.02 | 60 | 1018.9 |
| 20260504171305 | 85 | 257 | 1.0 | 2.0 | 0.00 | 0.02 | 0.02 | 60 | 1018.6 |
| 20260504171203 | 85 | 253 | 1.0 | 3.0 | 0.00 | 0.02 | 0.02 | 60 | 1018.9 |
| 20260504171103 | 85 | 250 | 1.0 | 3.0 | 0.00 | 0.02 | 0.02 | 60 | 1018.9 |
| 20260504171004 | 85 | 243 | 1.0 | 3.0 | 0.00 | 0.02 | 0.02 | 60 | 1018.9 |
| 20260504170903 | 85 | 234 | 1.0 | 3.0 | 0.00 | 0.02 | 0.02 | 60 | 1018.9 |
| 20260504170804 | 85 | 230 | 2.0 | 3.0 | 0.00 | 0.02 | 0.02 | 60 | 1018.7 |
| 20260504170703 | 85 | 230 | 1.0 | 3.0 | 0.00 | 0.02 | 0.02 | 60 | 1018.8 |
| 20260504170603 | 85 | 226 | 1.0 | 3.0 | 0.00 | 0.02 | 0.02 | 60 | 1018.7 |
| 20260504170503 | 85 | 217 | 1.0 | 3.0 | 0.00 | 0.02 | 0.02 | 60 | 1018.9 |
| 20260504170403 | 85 | 204 | 1.0 | 3.0 | 0.00 | 0.02 | 0.02 | 60 | 1018.8 |
| 20260504170304 | 85 | 193 | 1.0 | 3.0 | 0.00 | 0.02 | 0.02 | 60 | 1018.9 |
| 20260504170203 | 85 | 175 | 2.0 | 3.0 | 0.00 | 0.02 | 0.02 | 60 | 1018.8 |
| 20260504160403 | 85 | 316 | 0.0 | 2.0 | 0.00 | 0.02 | 0.02 | 60 | 1018.7 |
| 20260504160304 | 85 | 355 | 0.0 | 1.0 | 0.00 | 0.02 | 0.02 | 60 | 1018.7 |
| 20260504160203 | 85 | 44 | 0.0 | 1.0 | 0.00 | 0.02 | 0.02 | 60 | 1018.7 |
| 20260504160103 | 85 | 58 | 0.0 | 1.0 | 0.00 | 0.02 | 0.02 | 60 | 1018.6 |
| 20260504151103 | 85 | 0 | 0.0 | 0.0 | 0.00 | 0.02 | 0.02 | 60 | 1018.3 |
| 20260504151003 | 85 | 284 | 0.0 | 1.0 | 0.00 | 0.02 | 0.02 | 60 | 1018.3 |
| 20260504150903 | 85 | 283 | 0.0 | 1.0 | 0.00 | 0.02 | 0.02 | 60 | 1018.1 |
| 20260504150803 | 85 | 283 | 0.0 | 2.0 | 0.00 | 0.02 | 0.02 | 60 | 1018.0 |
| 20260504150724 | 85 | 284 | 1.0 | 2.0 | 0.00 | 0.02 | 0.02 | 60 | 1018.0 |
| 20260504150624 | 85 | 285 | 1.0 | 2.0 | 0.00 | 0.02 | 0.02 | 60 | 1018.1 |
| 20260504150504 | 85 | 286 | 1.0 | 2.0 | 0.00 | 0.02 | 0.02 | 60 | 1018.0 |
| 20260504150403 | 85 | 287 | 1.0 | 2.0 | 0.00 | 0.02 | 0.02 | 60 | 1018.0 |
| 20260504150303 | 85 | 287 | 1.0 | 2.0 | 0.00 | 0.02 | 0.02 | 60 | 1018.1 |
| 20260504150203 | 85 | 287 | 1.0 | 2.0 | 0.00 | 0.02 | 0.02 | 60 | 1018.0 |
| 20260504150103 | 85 | 288 | 1.0 | 2.0 | 0.00 | 0.02 | 0.02 | 60 | 1018.1 |
| 20260504141324 | 85 | 293 | 1.0 | 2.0 | 0.00 | 0.02 | 0.02 | 60 | 1017.4 |
| 20260504141203 | 85 | 293 | 1.0 | 2.0 | 0.00 | 0.02 | 0.02 | 60 | 1017.4 |
| 20260504141125 | 85 | 292 | 1.0 | 2.0 | 0.00 | 0.02 | 0.02 | 60 | 1017.3 |
| 20260504141024 | 85 | 291 | 1.0 | 2.0 | 0.00 | 0.02 | 0.02 | 60 | 1017.4 |
| 20260504140903 | 85 | 292 | 1.0 | 2.0 | 0.00 | 0.02 | 0.02 | 60 | 1017.4 |
| 20260504140803 | 85 | 291 | 1.0 | 2.0 | 0.00 | 0.02 | 0.02 | 60 | 1017.3 |
| 20260504140703 | 85 | 290 | 1.0 | 2.0 | 0.00 | 0.02 | 0.02 | 60 | 1017.3 |
| 20260504140603 | 85 | 288 | 1.0 | 2.0 | 0.00 | 0.02 | 0.02 | 60 | 1017.3 |
| 20260504140524 | 85 | 288 | 1.0 | 2.0 | 0.00 | 0.02 | 0.02 | 60 | 1017.3 |
| 20260504140403 | 85 | 283 | 1.0 | 2.0 | 0.00 | 0.02 | 0.02 | 60 | 1017.2 |
| 20260504140304 | 85 | 280 | 1.0 | 2.0 | 0.00 | 0.02 | 0.02 | 60 | 1017.2 |
| 20260504140203 | 85 | 273 | 1.0 | 2.0 | 0.00 | 0.02 | 0.02 | 60 | 1017.1 |
| 20260504140103 | 85 | 269 | 1.0 | 2.0 | 0.00 | 0.02 | 0.02 | 60 | 1017.2 |
| 20260504130804 | 85 | 325 | 2.0 | 3.0 | 0.00 | 0.02 | 0.02 | 60 | 1016.5 |
| 20260504130703 | 85 | 325 | 2.0 | 3.0 | 0.00 | 0.02 | 0.02 | 60 | 1016.4 |
| 20260504130603 | 85 | 323 | 3.0 | 3.0 | 0.00 | 0.02 | 0.02 | 60 | 1016.5 |
| 20260504130503 | 85 | 321 | 3.0 | 3.0 | 0.00 | 0.02 | 0.02 | 60 | 1016.4 |
| 20260504130403 | 85 | 322 | 3.0 | 3.0 | 0.00 | 0.02 | 0.02 | 60 | 1016.3 |
| 20260504130325 | 85 | 322 | 3.0 | 3.0 | 0.00 | 0.02 | 0.02 | 60 | 1016.4 |
| 20260504130203 | 85 | 324 | 3.0 | 3.0 | 0.00 | 0.02 | 0.02 | 60 | 1016.4 |
| 20260504130104 | 85 | 324 | 3.0 | 3.0 | 0.00 | 0.02 | 0.02 | 60 | 1016.4 |
| 20260504120203 | 85 | 334 | 4.0 | 6.0 | 0.00 | 0.06 | 0.02 | 60 | 1015.9 |
| 20260504120103 | 85 | 335 | 4.0 | 6.0 | 0.00 | 0.06 | 0.02 | 60 | 1015.9 |
| 20260504110624 | 85 | 2 | 5.0 | 8.0 | 0.00 | 0.08 | 0.02 | 60 | 1015.8 |
| 20260504110503 | 85 | 2 | 6.0 | 8.0 | 0.00 | 0.08 | 0.02 | 60 | 1015.6 |
| 20260504110403 | 85 | 5 | 6.0 | 8.0 | 0.00 | 0.08 | 0.02 | 60 | 1015.8 |
| 20260504110303 | 85 | 4 | 6.0 | 8.0 | 0.00 | 0.08 | 0.02 | 60 | 1015.4 |
| 20260504110224 | 85 | 6 | 6.0 | 9.0 | 0.00 | 0.08 | 0.02 | 60 | 1015.9 |
| 20260504110103 | 85 | 8 | 7.0 | 9.0 | 0.00 | 0.08 | 0.02 | 60 | 1015.8 |
| 20260504100524 | 85 | 358 | 5.0 | 7.0 | 0.00 | 0.08 | 0.02 | 60 | 1016.1 |
| 20260504100403 | 85 | 2 | 5.0 | 7.0 | 0.00 | 0.08 | 0.02 | 60 | 1016.0 |
| 20260504100303 | 85 | 2 | 5.0 | 7.0 | 0.00 | 0.08 | 0.02 | 60 | 1015.9 |
| 20260504100205 | 85 | 2 | 4.0 | 7.0 | 0.00 | 0.08 | 0.02 | 60 | 1015.9 |
| 20260504100103 | 85 | 5 | 4.0 | 7.0 | 0.00 | 0.08 | 0.02 | 60 | 1016.0 |
| 20260504082003 | 85 | 269 | 2.0 | 4.0 | 0.00 | 0.08 | 0.02 | 60 | 1017.2 |
| 20260504081904 | 85 | 273 | 2.0 | 4.0 | 0.00 | 0.08 | 0.02 | 60 | 1017.4 |
| 20260504081803 | 85 | 285 | 2.0 | 4.0 | 0.00 | 0.08 | 0.02 | 60 | 1017.3 |
| 20260504081703 | 85 | 289 | 2.0 | 4.0 | 0.00 | 0.08 | 0.02 | 60 | 1017.2 |
| 20260504081603 | 85 | 298 | 3.0 | 4.0 | 0.00 | 0.08 | 0.02 | 60 | 1017.4 |
| 20260504081524 | 85 | 298 | 3.0 | 4.0 | 0.00 | 0.08 | 0.02 | 60 | 1017.5 |
| 20260504081403 | 85 | 304 | 3.0 | 6.0 | 0.00 | 0.08 | 0.02 | 60 | 1017.3 |
| 20260504081303 | 85 | 299 | 3.0 | 6.0 | 0.00 | 0.08 | 0.02 | 60 | 1017.4 |
| 20260504081203 | 85 | 291 | 4.0 | 6.0 | 0.00 | 0.08 | 0.02 | 60 | 1017.5 |
| 20260504081103 | 85 | 287 | 4.0 | 6.0 | 0.00 | 0.08 | 0.02 | 60 | 1017.4 |
| 20260504081003 | 85 | 288 | 4.0 | 6.0 | 0.00 | 0.08 | 0.02 | 60 | 1017.5 |
| 20260504080903 | 85 | 287 | 4.0 | 6.0 | 0.00 | 0.08 | 0.02 | 60 | 1017.7 |
| 20260504080803 | 85 | 286 | 4.0 | 6.0 | 0.00 | 0.08 | 0.02 | 60 | 1017.5 |
| 20260504080703 | 85 | 282 | 4.0 | 6.0 | 0.00 | 0.08 | 0.02 | 60 | 1017.6 |
| 20260504080603 | 85 | 283 | 3.0 | 6.0 | 0.00 | 0.08 | 0.02 | 60 | 1017.5 |
| 20260504080503 | 85 | 287 | 3.0 | 6.0 | 0.00 | 0.08 | 0.02 | 60 | 1017.7 |
| 20260504080403 | 85 | 287 | 3.0 | 6.0 | 0.00 | 0.08 | 0.02 | 60 | 1017.7 |
| 20260504080324 | 85 | 287 | 3.0 | 6.0 | 0.00 | 0.08 | 0.02 | 60 | 1017.5 |
| 20260504080205 | 85 | 298 | 2.0 | 4.0 | 0.00 | 0.08 | 0.02 | 60 | 1017.6 |
| 20260504070303 | 85 | 2 | 4.0 | 6.0 | 0.02 | 0.08 | 0.02 | 60 | 1018.7 |
| 20260504070203 | 85 | 4 | 4.0 | 6.0 | 0.02 | 0.08 | 0.02 | 60 | 1018.6 |
| 20260504070104 | 85 | 5 | 4.0 | 6.0 | 0.02 | 0.08 | 0.02 | 60 | 1018.8 |
| 20260504060203 | 85 | 1 | 5.0 | 7.0 | 0.00 | 0.06 | 0.00 | 60 | 1019.4 |
| 20260504060104 | 85 | 359 | 5.0 | 7.0 | 0.00 | 0.06 | 0.00 | 60 | 1019.5 |
| 20260504050703 | 85 | 345 | 6.0 | 7.0 | 0.00 | 0.06 | 0.00 | 60 | 1019.7 |
| 20260504050603 | 85 | 342 | 6.0 | 8.0 | 0.00 | 0.06 | 0.00 | 60 | 1019.9 |
| 20260504050503 | 85 | 341 | 6.0 | 8.0 | 0.00 | 0.06 | 0.00 | 60 | 1019.8 |
| 20260504050403 | 85 | 342 | 5.0 | 8.0 | 0.00 | 0.06 | 0.00 | 60 | 1019.8 |
| 20260504050303 | 85 | 339 | 5.0 | 8.0 | 0.00 | 0.06 | 0.00 | 60 | 1019.7 |
| 20260504050204 | 85 | 341 | 6.0 | 8.0 | 0.00 | 0.06 | 0.00 | 60 | 1019.8 |
| 20260504050104 | 85 | 343 | 5.0 | 8.0 | 0.00 | 0.06 | 0.00 | 60 | 1019.8 |
| 20260504050004 | 85 | 348 | 6.0 | 8.0 | 0.00 | 0.06 | 0.00 | 60 | 1019.7 |
| 20260504045924 | 85 | 349 | 6.0 | 8.0 | 0.00 | 0.06 | 0.00 | 60 | 1019.9 |
| 20260504045803 | 85 | 352 | 6.0 | 8.0 | 0.00 | 0.06 | 0.00 | 60 | 1019.8 |
| 20260504045724 | 85 | 350 | 5.0 | 8.0 | 0.00 | 0.06 | 0.00 | 60 | 1019.8 |
| 20260504045603 | 85 | 350 | 5.0 | 8.0 | 0.00 | 0.06 | 0.00 | 60 | 1019.8 |
| 20260504045503 | 85 | 350 | 5.0 | 8.0 | 0.00 | 0.06 | 0.00 | 60 | 1019.8 |
| 20260504045403 | 85 | 353 | 5.0 | 8.0 | 0.00 | 0.06 | 0.00 | 60 | 1019.8 |
| 20260504045304 | 85 | 358 | 5.0 | 8.0 | 0.00 | 0.06 | 0.00 | 60 | 1019.7 |
| 20260504045203 | 85 | 1 | 5.0 | 8.0 | 0.00 | 0.06 | 0.00 | 60 | 1019.9 |
| 20260504045103 | 85 | 4 | 5.0 | 8.0 | 0.00 | 0.06 | 0.00 | 60 | 1020.0 |
| 20260504045004 | 85 | 6 | 5.0 | 8.0 | 0.00 | 0.06 | 0.00 | 60 | 1019.9 |
| 20260504044903 | 85 | 359 | 5.0 | 8.0 | 0.00 | 0.06 | 0.00 | 60 | 1019.9 |
| 20260504044803 | 85 | 354 | 4.0 | 6.0 | 0.00 | 0.06 | 0.00 | 60 | 1019.9 |
| 20260504044703 | 85 | 353 | 5.0 | 7.0 | 0.00 | 0.06 | 0.00 | 60 | 1019.8 |
| 20260504044604 | 85 | 353 | 5.0 | 7.0 | 0.00 | 0.06 | 0.00 | 60 | 1020.0 |
| 20260504044504 | 85 | 353 | 5.0 | 8.0 | 0.00 | 0.06 | 0.00 | 60 | 1019.8 |
| 20260504044424 | 85 | 352 | 5.0 | 8.0 | 0.00 | 0.06 | 0.00 | 60 | 1020.0 |
| 20260504044303 | 85 | 346 | 5.0 | 8.0 | 0.00 | 0.06 | 0.00 | 60 | 1020.0 |
| 20260504044203 | 85 | 345 | 6.0 | 8.0 | 0.00 | 0.06 | 0.00 | 60 | 1019.9 |
| 20260504044104 | 85 | 342 | 6.0 | 8.0 | 0.00 | 0.06 | 0.00 | 60 | 1020.0 |
| 20260504044003 | 85 | 340 | 6.0 | 8.0 | 0.00 | 0.06 | 0.00 | 60 | 1020.1 |
| 20260504043903 | 85 | 343 | 6.0 | 8.0 | 0.00 | 0.06 | 0.00 | 60 | 1020.0 |
| 20260504043803 | 85 | 348 | 6.0 | 9.0 | 0.00 | 0.06 | 0.00 | 60 | 1020.0 |
| 20260504043724 | 85 | 350 | 6.0 | 9.0 | 0.00 | 0.06 | 0.00 | 60 | 1019.9 |
| 20260504043603 | 85 | 350 | 6.0 | 9.0 | 0.00 | 0.06 | 0.00 | 60 | 1019.9 |
| 20260504043503 | 85 | 351 | 6.0 | 9.0 | 0.00 | 0.06 | 0.00 | 60 | 1019.9 |
| 20260504043403 | 85 | 350 | 6.0 | 9.0 | 0.00 | 0.06 | 0.00 | 60 | 1020.0 |
| 20260504043303 | 85 | 350 | 6.0 | 9.0 | 0.00 | 0.06 | 0.00 | 60 | 1020.0 |
| 20260504043203 | 85 | 351 | 6.0 | 9.0 | 0.00 | 0.06 | 0.00 | 60 | 1020.1 |
| 20260504043104 | 85 | 351 | 6.0 | 9.0 | 0.00 | 0.06 | 0.00 | 60 | 1020.0 |
| 20260504043003 | 85 | 349 | 6.0 | 9.0 | 0.00 | 0.06 | 0.00 | 60 | 1020.1 |
| 20260504042903 | 85 | 345 | 6.0 | 9.0 | 0.00 | 0.06 | 0.00 | 60 | 1020.1 |
| 20260504042803 | 85 | 340 | 5.0 | 7.0 | 0.00 | 0.06 | 0.00 | 60 | 1020.0 |
| 20260504042724 | 85 | 343 | 6.0 | 8.0 | 0.00 | 0.06 | 0.00 | 60 | 1019.8 |
| 20260504042603 | 85 | 349 | 5.0 | 8.0 | 0.00 | 0.06 | 0.00 | 60 | 1019.9 |
| 20260504042503 | 85 | 348 | 5.0 | 8.0 | 0.00 | 0.06 | 0.00 | 60 | 1019.9 |
| 20260504042403 | 85 | 349 | 5.0 | 8.0 | 0.00 | 0.06 | 0.00 | 60 | 1020.0 |
| 20260504042304 | 85 | 352 | 6.0 | 8.0 | 0.00 | 0.06 | 0.00 | 60 | 1020.1 |
| 20260504042203 | 85 | 350 | 5.0 | 8.0 | 0.00 | 0.06 | 0.00 | 60 | 1020.1 |
| 20260504042104 | 85 | 349 | 5.0 | 8.0 | 0.00 | 0.06 | 0.00 | 60 | 1019.9 |
| 20260504042024 | 85 | 353 | 5.0 | 8.0 | 0.00 | 0.06 | 0.00 | 60 | 1020.2 |
| 20260504041903 | 85 | 356 | 5.0 | 8.0 | 0.00 | 0.06 | 0.00 | 60 | 1020.0 |
| 20260504041824 | 85 | 358 | 5.0 | 8.0 | 0.00 | 0.06 | 0.00 | 60 | 1019.9 |
| 20260504041703 | 85 | 353 | 4.0 | 7.0 | 0.00 | 0.06 | 0.00 | 60 | 1020.1 |
| 20260504041625 | 85 | 352 | 4.0 | 7.0 | 0.00 | 0.06 | 0.00 | 60 | 1020.1 |
| 20260504041503 | 85 | 351 | 4.0 | 7.0 | 0.00 | 0.06 | 0.00 | 60 | 1020.0 |
| 20260504041424 | 85 | 352 | 4.0 | 7.0 | 0.00 | 0.06 | 0.00 | 60 | 1020.0 |
| 20260504041304 | 85 | 348 | 4.0 | 6.0 | 0.00 | 0.06 | 0.00 | 60 | 1020.0 |
| 20260504041204 | 85 | 352 | 4.0 | 7.0 | 0.00 | 0.06 | 0.00 | 60 | 1019.9 |
| 20260504041103 | 85 | 353 | 4.0 | 7.0 | 0.00 | 0.06 | 0.00 | 60 | 1019.9 |
| 20260504041003 | 85 | 351 | 4.0 | 7.0 | 0.00 | 0.06 | 0.00 | 60 | 1020.0 |
| 20260504040903 | 85 | 348 | 4.0 | 7.0 | 0.00 | 0.06 | 0.00 | 60 | 1020.1 |
| 20260504040803 | 85 | 349 | 5.0 | 7.0 | 0.00 | 0.06 | 0.00 | 60 | 1019.9 |
| 20260504040724 | 85 | 351 | 5.0 | 9.0 | 0.00 | 0.06 | 0.00 | 60 | 1020.1 |
| 20260504040603 | 85 | 351 | 6.0 | 9.0 | 0.00 | 0.06 | 0.00 | 60 | 1020.0 |
| 20260504040503 | 85 | 349 | 6.0 | 9.0 | 0.00 | 0.06 | 0.00 | 60 | 1019.9 |
| 20260504040424 | 85 | 349 | 6.0 | 9.0 | 0.00 | 0.06 | 0.00 | 60 | 1020.0 |
| 20260504040324 | 85 | 347 | 6.0 | 9.0 | 0.00 | 0.06 | 0.00 | 60 | 1020.0 |
| 20260504040224 | 85 | 347 | 6.0 | 9.0 | 0.00 | 0.06 | 0.00 | 60 | 1020.0 |
| 20260504040103 | 85 | 346 | 6.0 | 9.0 | 0.00 | 0.06 | 0.00 | 60 | 1020.0 |
| 20260504040024 | 85 | 343 | 6.0 | 9.0 | 0.00 | 0.06 | 0.00 | 60 | 1020.0 |
| 20260504035903 | 85 | 344 | 6.0 | 9.0 | 0.00 | 0.06 | 0.00 | 60 | 1019.9 |
| 20260504035824 | 85 | 346 | 6.0 | 9.0 | 0.00 | 0.06 | 0.00 | 60 | 1019.9 |
| 20260504035703 | 85 | 343 | 6.0 | 10.0 | 0.00 | 0.06 | 0.00 | 60 | 1019.8 |
| 20260504035603 | 85 | 340 | 6.0 | 10.0 | 0.00 | 0.06 | 0.00 | 60 | 1020.0 |
| 20260504035503 | 85 | 340 | 6.0 | 10.0 | 0.00 | 0.06 | 0.00 | 60 | 1019.7 |
| 20260504035403 | 85 | 336 | 6.0 | 10.0 | 0.00 | 0.06 | 0.00 | 60 | 1019.9 |
| 20260504035326 | 85 | 337 | 6.0 | 10.0 | 0.00 | 0.06 | 0.00 | 60 | 1019.8 |
| 20260504035203 | 85 | 337 | 6.0 | 10.0 | 0.00 | 0.06 | 0.00 | 60 | 1019.9 |
| 20260504035103 | 85 | 338 | 6.0 | 10.0 | 0.00 | 0.06 | 0.00 | 60 | 1019.9 |
| 20260504035024 | 85 | 337 | 6.0 | 10.0 | 0.00 | 0.06 | 0.00 | 60 | 1019.9 |
| 20260504034924 | 85 | 336 | 6.0 | 10.0 | 0.00 | 0.06 | 0.00 | 60 | 1020.0 |
| 20260504034824 | 85 | 336 | 7.0 | 10.0 | 0.00 | 0.06 | 0.00 | 60 | 1019.9 |
| 20260504034703 | 85 | 337 | 6.0 | 9.0 | 0.00 | 0.06 | 0.00 | 60 | 1019.9 |
| 20260504034603 | 85 | 339 | 6.0 | 9.0 | 0.00 | 0.06 | 0.00 | 60 | 1019.8 |
| 20260504034524 | 85 | 340 | 6.0 | 9.0 | 0.00 | 0.06 | 0.00 | 60 | 1020.0 |
| 20260504034403 | 85 | 341 | 6.0 | 9.0 | 0.00 | 0.06 | 0.00 | 60 | 1019.9 |
| 20260504034303 | 85 | 345 | 5.0 | 9.0 | 0.00 | 0.06 | 0.00 | 60 | 1019.9 |
| 20260504034203 | 85 | 348 | 5.0 | 9.0 | 0.00 | 0.06 | 0.00 | 60 | 1019.8 |
| 20260504034103 | 85 | 347 | 5.0 | 9.0 | 0.00 | 0.06 | 0.00 | 60 | 1019.9 |
| 20260504034004 | 85 | 350 | 5.0 | 9.0 | 0.00 | 0.06 | 0.00 | 60 | 1019.8 |
| 20260504033903 | 85 | 353 | 5.0 | 9.0 | 0.00 | 0.06 | 0.00 | 60 | 1019.8 |
| 20260504033803 | 85 | 351 | 6.0 | 9.0 | 0.00 | 0.06 | 0.00 | 60 | 1019.9 |
| 20260504033705 | 85 | 345 | 6.0 | 9.0 | 0.00 | 0.06 | 0.00 | 60 | 1019.7 |
| 20260504033603 | 85 | 342 | 6.0 | 9.0 | 0.00 | 0.06 | 0.00 | 60 | 1019.8 |
| 20260504033503 | 85 | 341 | 6.0 | 10.0 | 0.00 | 0.06 | 0.00 | 60 | 1019.7 |
| 20260504033403 | 85 | 344 | 6.0 | 10.0 | 0.00 | 0.06 | 0.00 | 60 | 1019.8 |
| 20260504033303 | 85 | 340 | 7.0 | 10.0 | 0.00 | 0.06 | 0.00 | 60 | 1019.8 |
| 20260504033203 | 85 | 337 | 7.0 | 10.0 | 0.00 | 0.06 | 0.00 | 60 | 1019.8 |
| 20260504033104 | 85 | 336 | 7.0 | 10.0 | 0.00 | 0.06 | 0.00 | 60 | 1019.9 |
| 20260504033003 | 85 | 335 | 7.0 | 10.0 | 0.00 | 0.06 | 0.00 | 60 | 1019.8 |
| 20260504032903 | 85 | 334 | 7.0 | 10.0 | 0.00 | 0.06 | 0.00 | 60 | 1019.7 |
| 20260504032803 | 85 | 336 | 7.0 | 10.0 | 0.00 | 0.06 | 0.00 | 60 | 1019.8 |
| 20260504032703 | 85 | 341 | 6.0 | 10.0 | 0.00 | 0.06 | 0.00 | 60 | 1019.9 |
| 20260504032603 | 85 | 342 | 6.0 | 10.0 | 0.00 | 0.06 | 0.00 | 60 | 1019.9 |
| 20260504032524 | 85 | 342 | 6.0 | 10.0 | 0.00 | 0.06 | 0.00 | 60 | 1019.9 |
| 20260504032403 | 85 | 343 | 6.0 | 8.0 | 0.00 | 0.06 | 0.00 | 60 | 1019.8 |
| 20260504032304 | 85 | 347 | 6.0 | 8.0 | 0.00 | 0.06 | 0.00 | 60 | 1019.9 |
| 20260504032203 | 85 | 350 | 6.0 | 8.0 | 0.00 | 0.06 | 0.00 | 60 | 1019.8 |
| 20260504032105 | 85 | 352 | 5.0 | 8.0 | 0.00 | 0.06 | 0.00 | 60 | 1019.7 |
| 20260504032003 | 85 | 356 | 5.0 | 8.0 | 0.00 | 0.06 | 0.00 | 60 | 1019.9 |
| 20260504031903 | 85 | 355 | 5.0 | 8.0 | 0.00 | 0.06 | 0.00 | 60 | 1019.7 |
| 20260504031824 | 85 | 355 | 4.0 | 8.0 | 0.00 | 0.06 | 0.00 | 60 | 1019.8 |
| 20260504031703 | 85 | 360 | 4.0 | 8.0 | 0.00 | 0.06 | 0.00 | 60 | 1019.8 |
| 20260504031624 | 85 | 8 | 4.0 | 8.0 | 0.00 | 0.06 | 0.00 | 60 | 1019.8 |
| 20260504031503 | 85 | 17 | 4.0 | 9.0 | 0.00 | 0.06 | 0.00 | 60 | 1019.6 |
| 20260504031403 | 85 | 22 | 4.0 | 9.0 | 0.00 | 0.06 | 0.00 | 60 | 1019.9 |
| 20260504031303 | 85 | 20 | 4.0 | 9.0 | 0.00 | 0.06 | 0.00 | 60 | 1019.8 |
| 20260504031203 | 85 | 19 | 4.0 | 9.0 | 0.00 | 0.06 | 0.00 | 60 | 1019.8 |
| 20260504031103 | 85 | 17 | 4.0 | 9.0 | 0.00 | 0.06 | 0.00 | 60 | 1019.7 |
| 20260504031003 | 85 | 19 | 4.0 | 9.0 | 0.00 | 0.06 | 0.00 | 60 | 1019.5 |
| 20260504030924 | 85 | 19 | 4.0 | 9.0 | 0.00 | 0.06 | 0.00 | 60 | 1019.6 |
| 20260504030825 | 85 | 20 | 4.0 | 9.0 | 0.00 | 0.06 | 0.00 | 60 | 1019.7 |
| 20260504030703 | 85 | 21 | 4.0 | 9.0 | 0.00 | 0.06 | 0.00 | 60 | 1019.7 |
| 20260504030604 | 85 | 21 | 4.0 | 9.0 | 0.00 | 0.07 | 0.00 | 60 | 1019.7 |
| 20260504030504 | 85 | 17 | 3.0 | 6.0 | 0.00 | 0.07 | 0.00 | 60 | 1019.6 |
| 20260504030424 | 85 | 19 | 3.0 | 6.0 | 0.00 | 0.07 | 0.00 | 60 | 1019.7 |
| 20260504030303 | 85 | 23 | 3.0 | 6.0 | 0.00 | 0.07 | 0.00 | 60 | 1019.6 |
| 20260504030224 | 85 | 28 | 3.0 | 6.0 | 0.00 | 0.07 | 0.00 | 60 | 1019.6 |
| 20260504030004 | 85 | 37 | 3.0 | 7.0 | 0.00 | 0.07 | 0.00 | 60 | 1019.5 |
| 20260504025903 | 85 | 38 | 3.0 | 7.0 | 0.00 | 0.07 | 0.00 | 60 | 1019.6 |
| 20260504025803 | 85 | 42 | 3.0 | 7.0 | 0.00 | 0.07 | 0.00 | 60 | 1019.6 |
| 20260504025703 | 85 | 40 | 4.0 | 7.0 | 0.00 | 0.07 | 0.00 | 60 | 1019.5 |
| 20260504025603 | 85 | 39 | 4.0 | 7.0 | 0.00 | 0.07 | 0.00 | 60 | 1019.5 |
| 20260504025524 | 85 | 38 | 4.0 | 7.0 | 0.00 | 0.07 | 0.00 | 60 | 1019.6 |
| 20260504025403 | 85 | 35 | 4.0 | 7.0 | 0.00 | 0.08 | 0.00 | 60 | 1019.7 |
| 20260504025304 | 85 | 35 | 3.0 | 7.0 | 0.00 | 0.08 | 0.00 | 60 | 1019.6 |
| 20260504025224 | 85 | 35 | 3.0 | 7.0 | 0.00 | 0.09 | 0.00 | 60 | 1019.6 |
| 20260504025103 | 85 | 32 | 3.0 | 7.0 | 0.00 | 0.09 | 0.00 | 60 | 1019.7 |
| 20260504025003 | 85 | 26 | 3.0 | 7.0 | 0.00 | 0.10 | 0.00 | 60 | 1019.6 |
| 20260504024905 | 85 | 21 | 3.0 | 7.0 | 0.00 | 0.11 | 0.00 | 60 | 1019.6 |
| 20260504024803 | 85 | 12 | 4.0 | 7.0 | 0.00 | 0.12 | 0.00 | 60 | 1019.6 |
| 20260504024724 | 85 | 5 | 3.0 | 7.0 | 0.00 | 0.12 | 0.00 | 60 | 1019.6 |
| 20260504024603 | 85 | 355 | 3.0 | 7.0 | 0.00 | 0.14 | 0.00 | 60 | 1019.7 |
| 20260504024503 | 85 | 354 | 4.0 | 7.0 | 0.00 | 0.14 | 0.00 | 60 | 1019.5 |
| 20260504024424 | 85 | 355 | 4.0 | 7.0 | 0.00 | 0.15 | 0.00 | 60 | 1019.6 |
| 20260504024303 | 85 | 360 | 4.0 | 7.0 | 0.00 | 0.15 | 0.00 | 60 | 1019.5 |
| 20260504024203 | 85 | 1 | 4.0 | 7.0 | 0.00 | 0.15 | 0.00 | 60 | 1019.5 |
| 20260504024103 | 85 | 1 | 4.0 | 7.0 | 0.00 | 0.15 | 0.00 | 60 | 1019.5 |
| 20260504024003 | 85 | 7 | 4.0 | 7.0 | 0.00 | 0.16 | 0.00 | 60 | 1019.6 |
| 20260504023903 | 85 | 10 | 4.0 | 6.0 | 0.00 | 0.16 | 0.00 | 60 | 1019.4 |
| 20260504023824 | 85 | 14 | 4.0 | 6.0 | 0.00 | 0.16 | 0.00 | 60 | 1019.5 |
| 20260504023703 | 85 | 19 | 4.0 | 6.0 | 0.00 | 0.16 | 0.00 | 60 | 1019.7 |
| 20260504023604 | 85 | 22 | 4.0 | 6.0 | 0.00 | 0.17 | 0.00 | 60 | 1019.5 |
| 20260504023503 | 85 | 25 | 3.0 | 6.0 | 0.00 | 0.17 | 0.00 | 60 | 1019.6 |
| 20260504023403 | 85 | 31 | 4.0 | 6.0 | 0.00 | 0.18 | 0.00 | 60 | 1019.7 |
| 20260504023324 | 85 | 29 | 4.0 | 6.0 | 0.00 | 0.18 | 0.00 | 60 | 1019.7 |
| 20260504023203 | 85 | 27 | 4.0 | 6.0 | 0.00 | 0.18 | 0.00 | 60 | 1019.5 |
| 20260504023125 | 85 | 27 | 4.0 | 6.0 | 0.00 | 0.18 | 0.00 | 60 | 1019.4 |
| 20260504023003 | 85 | 25 | 4.0 | 6.0 | 0.00 | 0.19 | 0.00 | 60 | 1019.5 |
| 20260504022903 | 85 | 26 | 4.0 | 6.0 | 0.00 | 0.19 | 0.00 | 60 | 1019.4 |
| 20260504022803 | 85 | 27 | 4.0 | 6.0 | 0.00 | 0.19 | 0.00 | 60 | 1019.2 |
| 20260504022703 | 85 | 26 | 4.0 | 6.0 | 0.00 | 0.19 | 0.00 | 60 | 1019.5 |
| 20260504022624 | 85 | 25 | 4.0 | 6.0 | 0.00 | 0.20 | 0.00 | 60 | 1019.6 |
| 20260504022503 | 85 | 22 | 4.0 | 6.0 | 0.00 | 0.20 | 0.00 | 60 | 1019.6 |
| 20260504022403 | 85 | 15 | 3.0 | 6.0 | 0.00 | 0.21 | 0.00 | 60 | 1019.4 |
| 20260504022324 | 85 | 13 | 3.0 | 6.0 | 0.00 | 0.21 | 0.00 | 60 | 1019.5 |
| 20260504022203 | 85 | 7 | 4.0 | 6.0 | 0.00 | 0.21 | 0.00 | 60 | 1019.4 |
| 20260504022103 | 85 | 2 | 4.0 | 6.0 | 0.00 | 0.21 | 0.00 | 60 | 1019.4 |
| 20260504022003 | 85 | 359 | 4.0 | 6.0 | 0.00 | 0.22 | 0.00 | 60 | 1019.6 |
| 20260504021903 | 85 | 355 | 4.0 | 8.0 | 0.00 | 0.22 | 0.00 | 60 | 1019.5 |
| 20260504021803 | 85 | 353 | 4.0 | 8.0 | 0.00 | 0.23 | 0.00 | 60 | 1019.4 |
| 20260504021703 | 85 | 352 | 4.0 | 8.0 | 0.00 | 0.23 | 0.00 | 60 | 1019.5 |
| 20260504021603 | 85 | 353 | 5.0 | 8.0 | 0.00 | 0.23 | 0.00 | 60 | 1019.5 |
| 20260504021504 | 85 | 356 | 5.0 | 8.0 | 0.00 | 0.23 | 0.00 | 60 | 1019.2 |
| 20260504021403 | 85 | 355 | 5.0 | 8.0 | 0.00 | 0.23 | 0.00 | 60 | 1019.5 |
| 20260504021304 | 85 | 357 | 5.0 | 8.0 | 0.00 | 0.24 | 0.00 | 60 | 1019.4 |
| 20260504021224 | 85 | 358 | 5.0 | 8.0 | 0.00 | 0.24 | 0.00 | 60 | 1019.5 |
| 20260504021124 | 85 | 359 | 5.0 | 8.0 | 0.00 | 0.24 | 0.00 | 60 | 1019.5 |
| 20260504021025 | 85 | 1 | 5.0 | 8.0 | 0.00 | 0.24 | 0.00 | 60 | 1019.4 |
| 20260504020903 | 85 | 8 | 4.0 | 7.0 | 0.00 | 0.24 | 0.00 | 60 | 1019.4 |
| 20260504020803 | 85 | 11 | 4.0 | 7.0 | 0.00 | 0.25 | 0.00 | 60 | 1019.4 |
| 20260504020724 | 85 | 12 | 4.0 | 7.0 | 0.00 | 0.26 | 0.00 | 60 | 1019.2 |
| 20260504020603 | 85 | 12 | 4.0 | 6.0 | 0.00 | 0.26 | 0.00 | 60 | 1019.2 |
| 20260504020503 | 85 | 10 | 4.0 | 6.0 | 0.00 | 0.27 | 0.00 | 60 | 1019.4 |
| 20260504020403 | 85 | 12 | 4.0 | 6.0 | 0.00 | 0.28 | 0.00 | 60 | 1019.4 |
| 20260504020303 | 85 | 13 | 4.0 | 6.0 | 0.00 | 0.28 | 0.00 | 60 | 1019.5 |
| 20260504020203 | 85 | 15 | 3.0 | 6.0 | 0.00 | 0.28 | 0.00 | 60 | 1019.2 |
| 20260504020103 | 85 | 13 | 3.0 | 6.0 | 0.00 | 0.29 | 0.00 | 60 | 1019.2 |
| 20260504020004 | 85 | 12 | 4.0 | 6.0 | 0.00 | 0.29 | 0.00 | 60 | 1019.4 |
| 20260504015903 | 85 | 10 | 4.0 | 6.0 | 0.00 | 0.29 | 0.00 | 60 | 1019.2 |
| 20260504015803 | 85 | 6 | 4.0 | 6.0 | 0.00 | 0.30 | 0.00 | 60 | 1019.5 |
| 20260504015703 | 85 | 3 | 4.0 | 6.0 | 0.00 | 0.30 | 0.00 | 60 | 1019.2 |
| 20260504015603 | 85 | 360 | 4.0 | 6.0 | 0.00 | 0.30 | 0.00 | 60 | 1019.2 |
| 20260504015524 | 85 | 360 | 4.0 | 6.0 | 0.00 | 0.30 | 0.00 | 60 | 1019.2 |
| 20260504015403 | 85 | 357 | 4.0 | 6.0 | 0.00 | 0.30 | 0.00 | 60 | 1019.1 |
| 20260504015304 | 85 | 355 | 4.0 | 6.0 | 0.00 | 0.30 | 0.00 | 60 | 1019.1 |
| 20260504015226 | 85 | 355 | 4.0 | 6.0 | 0.00 | 0.30 | 0.00 | 60 | 1019.1 |
| 20260504015103 | 85 | 354 | 4.0 | 6.0 | 0.00 | 0.30 | 0.00 | 60 | 1019.4 |
| 20260504015003 | 85 | 351 | 4.0 | 6.0 | 0.00 | 0.30 | 0.00 | 60 | 1019.2 |
| 20260504014903 | 85 | 348 | 3.0 | 6.0 | 0.00 | 0.30 | 0.00 | 60 | 1019.5 |
| 20260504014803 | 85 | 346 | 3.0 | 6.0 | 0.00 | 0.30 | 0.00 | 60 | 1019.2 |
| 20260504014724 | 85 | 346 | 3.0 | 6.0 | 0.00 | 0.30 | 0.00 | 60 | 1019.2 |
| 20260504014603 | 85 | 345 | 2.0 | 4.0 | 0.00 | 0.30 | 0.00 | 60 | 1019.2 |
| 20260504014524 | 85 | 345 | 2.0 | 4.0 | 0.00 | 0.31 | 0.00 | 60 | 1019.1 |
| 20260504014403 | 85 | 340 | 2.0 | 4.0 | 0.00 | 0.31 | 0.00 | 60 | 1019.1 |
| 20260504014303 | 85 | 343 | 2.0 | 4.0 | 0.00 | 0.31 | 0.00 | 60 | 1019.0 |
| 20260504014203 | 85 | 341 | 1.0 | 4.0 | 0.00 | 0.31 | 0.00 | 60 | 1019.0 |
| 20260504014103 | 85 | 348 | 1.0 | 4.0 | 0.00 | 0.31 | 0.00 | 60 | 1019.0 |
| 20260504014024 | 85 | 354 | 1.0 | 4.0 | 0.00 | 0.31 | 0.00 | 60 | 1019.0 |
| 20260504013924 | 85 | 4 | 1.0 | 2.0 | 0.00 | 0.31 | 0.00 | 60 | 1018.9 |
| 20260504013803 | 85 | 15 | 1.0 | 3.0 | 0.00 | 0.31 | 0.00 | 60 | 1018.9 |
| 20260504013703 | 85 | 21 | 1.0 | 3.0 | 0.00 | 0.31 | 0.00 | 60 | 1018.9 |
| 20260504013603 | 85 | 30 | 1.0 | 3.0 | 0.00 | 0.31 | 0.00 | 60 | 1018.9 |
| 20260504013503 | 85 | 30 | 1.0 | 3.0 | 0.00 | 0.31 | 0.00 | 60 | 1018.8 |
| 20260504013403 | 85 | 36 | 1.0 | 3.0 | 0.00 | 0.31 | 0.00 | 60 | 1019.0 |
| 20260504013305 | 85 | 38 | 1.0 | 3.0 | 0.00 | 0.31 | 0.00 | 60 | 1018.8 |
| 20260504013203 | 85 | 39 | 1.0 | 3.0 | 0.00 | 0.31 | 0.00 | 60 | 1018.8 |
| 20260504013103 | 85 | 39 | 1.0 | 3.0 | 0.00 | 0.31 | 0.00 | 60 | 1018.8 |
| 20260504013003 | 85 | 33 | 1.0 | 3.0 | 0.00 | 0.31 | 0.00 | 60 | 1018.8 |
| 20260504012903 | 85 | 14 | 1.0 | 3.0 | 0.00 | 0.31 | 0.00 | 60 | 1018.7 |
| 20260504012803 | 85 | 6 | 1.0 | 3.0 | 0.00 | 0.31 | 0.00 | 60 | 1018.9 |
| 20260504012724 | 85 | 358 | 1.0 | 2.0 | 0.00 | 0.31 | 0.00 | 60 | 1018.8 |
| 20260504012624 | 85 | 344 | 1.0 | 2.0 | 0.00 | 0.31 | 0.00 | 60 | 1018.9 |
| 20260504012503 | 85 | 342 | 1.0 | 2.0 | 0.00 | 0.31 | 0.00 | 60 | 1019.0 |
| 20260504012403 | 85 | 343 | 1.0 | 2.0 | 0.00 | 0.31 | 0.00 | 60 | 1018.8 |
| 20260504012304 | 85 | 351 | 1.0 | 4.0 | 0.00 | 0.31 | 0.00 | 60 | 1018.8 |
| 20260504012203 | 85 | 353 | 2.0 | 4.0 | 0.00 | 0.31 | 0.00 | 60 | 1018.8 |
| 20260504012103 | 85 | 353 | 2.0 | 4.0 | 0.00 | 0.31 | 0.00 | 60 | 1018.8 |
| 20260504012003 | 85 | 353 | 2.0 | 4.0 | 0.00 | 0.31 | 0.00 | 60 | 1018.9 |
| 20260504011903 | 85 | 358 | 2.0 | 4.0 | 0.00 | 0.31 | 0.00 | 60 | 1018.6 |
| 20260504011803 | 85 | 360 | 3.0 | 6.0 | 0.00 | 0.31 | 0.00 | 60 | 1018.8 |
| 20260504011703 | 85 | 360 | 3.0 | 6.0 | 0.00 | 0.31 | 0.00 | 60 | 1018.7 |
| 20260504011603 | 85 | 2 | 3.0 | 6.0 | 0.00 | 0.31 | 0.00 | 60 | 1018.8 |
| 20260504011503 | 85 | 4 | 3.0 | 6.0 | 0.00 | 0.31 | 0.00 | 60 | 1018.7 |
| 20260504011424 | 85 | 5 | 3.0 | 6.0 | 0.00 | 0.31 | 0.00 | 60 | 1018.8 |
| 20260504011303 | 85 | 3 | 3.0 | 6.0 | 0.00 | 0.31 | 0.00 | 60 | 1018.7 |
| 20260504011205 | 85 | 4 | 3.0 | 6.0 | 0.00 | 0.31 | 0.00 | 60 | 1018.6 |
| 20260504011103 | 85 | 5 | 3.0 | 6.0 | 0.00 | 0.31 | 0.00 | 60 | 1018.7 |
| 20260504011024 | 85 | 8 | 3.0 | 6.0 | 0.00 | 0.31 | 0.00 | 60 | 1018.8 |
| 20260504010903 | 85 | 9 | 3.0 | 6.0 | 0.00 | 0.31 | 0.00 | 60 | 1018.7 |
| 20260504010803 | 85 | 11 | 2.0 | 4.0 | 0.00 | 0.31 | 0.00 | 60 | 1018.8 |
| 20260504010703 | 85 | 11 | 2.0 | 4.0 | 0.00 | 0.31 | 0.00 | 60 | 1018.7 |
| 20260504010603 | 85 | 10 | 2.0 | 4.0 | 0.00 | 0.31 | 0.00 | 60 | 1018.7 |
| 20260504010503 | 85 | 5 | 2.0 | 4.0 | 0.00 | 0.31 | 0.00 | 60 | 1018.7 |
| 20260504010424 | 85 | 4 | 2.0 | 4.0 | 0.00 | 0.31 | 0.00 | 60 | 1018.7 |
| 20260504010303 | 85 | 1 | 2.0 | 3.0 | 0.00 | 0.31 | 0.00 | 60 | 1018.6 |
| 20260504010204 | 85 | 353 | 2.0 | 3.0 | 0.00 | 0.31 | 0.00 | 60 | 1018.6 |
| 20260504010024 | 85 | 342 | 2.0 | 3.0 | 0.00 | 0.32 | 0.00 | 60 | 1018.7 |
| 20260504005903 | 85 | 339 | 2.0 | 3.0 | 0.00 | 0.32 | 0.00 | 60 | 1018.6 |
| 20260504005803 | 85 | 338 | 2.0 | 3.0 | 0.00 | 0.32 | 0.00 | 60 | 1018.6 |
| 20260504005724 | 85 | 336 | 2.0 | 3.0 | 0.00 | 0.32 | 0.00 | 60 | 1018.8 |
| 20260504005604 | 85 | 338 | 2.0 | 3.0 | 0.00 | 0.32 | 0.00 | 60 | 1018.7 |
| 20260504005504 | 85 | 340 | 2.0 | 3.0 | 0.00 | 0.32 | 0.00 | 60 | 1018.5 |
| 20260504005403 | 85 | 340 | 2.0 | 3.0 | 0.00 | 0.33 | 0.00 | 60 | 1018.4 |
| 20260504005305 | 85 | 343 | 2.0 | 3.0 | 0.00 | 0.33 | 0.00 | 60 | 1018.6 |
| 20260504005224 | 85 | 347 | 2.0 | 3.0 | 0.00 | 0.34 | 0.00 | 60 | 1018.5 |
| 20260504005104 | 85 | 356 | 2.0 | 3.0 | 0.00 | 0.34 | 0.00 | 60 | 1018.5 |
| 20260504005004 | 85 | 359 | 2.0 | 3.0 | 0.00 | 0.35 | 0.00 | 60 | 1018.6 |
| 20260504004903 | 85 | 1 | 2.0 | 3.0 | 0.00 | 0.36 | 0.00 | 60 | 1018.4 |
| 20260504004803 | 85 | 2 | 2.0 | 3.0 | 0.00 | 0.37 | 0.00 | 60 | 1018.5 |
| 20260504004703 | 85 | 5 | 2.0 | 3.0 | 0.00 | 0.38 | 0.00 | 60 | 1018.4 |
| 20260504004604 | 85 | 11 | 1.0 | 3.0 | 0.00 | 0.39 | 0.00 | 60 | 1018.4 |
| 20260504004504 | 85 | 18 | 1.0 | 2.0 | 0.00 | 0.40 | 0.00 | 60 | 1018.3 |
| 20260504004424 | 85 | 20 | 1.0 | 2.0 | 0.00 | 0.40 | 0.00 | 60 | 1018.3 |
| 20260504004324 | 85 | 20 | 1.0 | 2.0 | 0.00 | 0.41 | 0.00 | 60 | 1018.5 |
| 20260504004203 | 85 | 21 | 1.0 | 2.0 | 0.00 | 0.41 | 0.00 | 60 | 1018.5 |
| 20260504004103 | 85 | 20 | 1.0 | 2.0 | 0.00 | 0.41 | 0.00 | 60 | 1018.3 |
| 20260504004003 | 85 | 21 | 0.0 | 2.0 | 0.00 | 0.42 | 0.00 | 60 | 1018.4 |
| 20260504003904 | 85 | 22 | 0.0 | 2.0 | 0.00 | 0.42 | 0.00 | 60 | 1018.5 |
| 20260504003824 | 85 | 24 | 0.0 | 2.0 | 0.00 | 0.42 | 0.00 | 60 | 1018.4 |
| 20260504003704 | 85 | 24 | 0.0 | 2.0 | 0.00 | 0.42 | 0.00 | 60 | 1018.4 |
| 20260504003603 | 85 | 26 | 1.0 | 2.0 | 0.00 | 0.43 | 0.00 | 60 | 1018.4 |
| 20260504003505 | 85 | 24 | 1.0 | 2.0 | 0.00 | 0.43 | 0.00 | 60 | 1018.4 |
| 20260504003403 | 85 | 25 | 1.0 | 2.0 | 0.00 | 0.43 | 0.00 | 60 | 1018.3 |
| 20260504003303 | 85 | 27 | 0.0 | 2.0 | 0.00 | 0.43 | 0.00 | 60 | 1018.3 |
| 20260504003203 | 85 | 27 | 0.0 | 2.0 | 0.00 | 0.43 | 0.00 | 60 | 1017.9 |
| 20260504003104 | 85 | 26 | 0.0 | 2.0 | 0.00 | 0.44 | 0.00 | 60 | 1018.3 |
| 20260504003004 | 85 | 26 | 0.0 | 2.0 | 0.00 | 0.44 | 0.00 | 60 | 1018.3 |
| 20260504002903 | 85 | 26 | 0.0 | 1.0 | 0.00 | 0.44 | 0.00 | 60 | 1018.3 |
| 20260504002803 | 85 | 23 | 0.0 | 1.0 | 0.00 | 0.44 | 0.00 | 60 | 1018.1 |
| 20260504002704 | 85 | 23 | 0.0 | 1.0 | 0.00 | 0.44 | 0.00 | 60 | 1017.9 |
| 20260504002603 | 85 | 23 | 0.0 | 1.0 | 0.00 | 0.44 | 0.00 | 60 | 1018.0 |
| 20260504002503 | 85 | 10 | 0.0 | 1.0 | 0.00 | 0.44 | 0.00 | 60 | 1018.0 |
| 20260504002404 | 85 | 0 | 0.0 | 0.0 | 0.00 | 0.44 | 0.00 | 60 | 1017.9 |
| 20260504002324 | 85 | 0 | 0.0 | 0.0 | 0.00 | 0.44 | 0.00 | 60 | 1018.0 |
| 20260504002203 | 85 | 0 | 0.0 | 0.0 | 0.00 | 0.44 | 0.00 | 60 | 1018.1 |
| 20260504002103 | 85 | 0 | 0.0 | 0.0 | 0.00 | 0.45 | 0.00 | 60 | 1018.0 |
| 20260504002003 | 85 | 0 | 0.0 | 0.0 | 0.00 | 0.45 | 0.00 | 60 | 1018.0 |
| 20260504001903 | 85 | 0 | 0.0 | 0.0 | 0.00 | 0.45 | 0.00 | 60 | 1018.1 |
| 20260504001803 | 85 | 0 | 0.0 | 0.0 | 0.00 | 0.45 | 0.00 | 60 | 1018.0 |
| 20260504001703 | 85 | 0 | 0.0 | 0.0 | 0.00 | 0.45 | 0.00 | 60 | 1018.0 |
| 20260504001624 | 85 | 0 | 0.0 | 0.0 | 0.00 | 0.45 | 0.00 | 60 | 1018.0 |
| 20260504001525 | 85 | 0 | 0.0 | 0.0 | 0.00 | 0.46 | 0.00 | 60 | 1018.0 |
| 20260504001404 | 85 | 0 | 0.0 | 0.0 | 0.00 | 0.46 | 0.00 | 60 | 1017.9 |
| 20260504001324 | 85 | 0 | 0.0 | 0.0 | 0.00 | 0.46 | 0.00 | 60 | 1017.8 |
| 20260504001205 | 85 | 0 | 0.0 | 0.0 | 0.00 | 0.46 | 0.00 | 60 | 1017.9 |
| 20260504001103 | 85 | 0 | 0.0 | 0.0 | 0.00 | 0.47 | 0.00 | 60 | 1017.9 |
| 20260504001003 | 85 | 0 | 0.0 | 0.0 | 0.00 | 0.47 | 0.00 | 60 | 1017.8 |
| 20260504000903 | 85 | 0 | 0.0 | 0.0 | 0.00 | 0.48 | 0.00 | 60 | 1017.8 |
| 20260504000803 | 85 | 0 | 0.0 | 0.0 | 0.00 | 0.49 | 0.00 | 60 | 1017.7 |
| 20260504000724 | 85 | 0 | 0.0 | 0.0 | 0.00 | 0.49 | 0.00 | 60 | 1017.6 |
| 20260504000604 | 85 | 0 | 0.0 | 0.0 | 0.00 | 0.50 | 0.00 | 60 | 1017.7 |
| 20260504000503 | 85 | 0 | 0.0 | 0.0 | 0.00 | 0.51 | 0.00 | 60 | 1017.7 |
| 20260504000403 | 85 | 0 | 0.0 | 0.0 | 0.00 | 0.52 | 0.00 | 60 | 1017.6 |
| 20260504000303 | 85 | 0 | 0.0 | 0.0 | 0.00 | 0.52 | 0.00 | 60 | 1017.6 |
| 20260504000204 | 85 | 0 | 0.0 | 0.0 | 0.00 | 0.53 | 0.00 | 60 | 1017.5 |
| 20260504000103 | 85 | 0 | 0.0 | 0.0 | 0.00 | 0.53 | 0.00 | 60 | 1017.6 |
| 20260504000004 | 85 | 0 | 0.0 | 0.0 | 0.00 | 0.54 | 0.00 | 60 | 1017.8 |
| 20260503235924 | 85 | 0 | 0.0 | 0.0 | 0.00 | 0.54 | 0.00 | 60 | 1017.9 |
| 20260503235804 | 85 | 0 | 0.0 | 0.0 | 0.00 | 0.54 | 0.00 | 60 | 1017.7 |
| 20260503235704 | 85 | 0 | 0.0 | 0.0 | 0.00 | 0.54 | 0.00 | 60 | 1017.7 |
| 20260503235603 | 85 | 0 | 0.0 | 0.0 | 0.00 | 0.54 | 0.00 | 60 | 1017.7 |
| 20260503235503 | 85 | 0 | 0.0 | 0.0 | 0.00 | 0.54 | 0.00 | 60 | 1017.8 |
| 20260503235426 | 85 | 0 | 0.0 | 0.0 | 0.00 | 0.54 | 0.00 | 60 | 1017.7 |
| 20260503235324 | 85 | 0 | 0.0 | 0.0 | 0.00 | 0.54 | 0.00 | 60 | 1017.7 |
| 20260503235203 | 85 | 0 | 0.0 | 0.0 | 0.00 | 0.54 | 0.00 | 60 | 1017.7 |
| 20260503235124 | 85 | 0 | 0.0 | 0.0 | 0.00 | 0.54 | 0.00 | 60 | 1017.7 |
| 20260503235003 | 85 | 0 | 0.0 | 0.0 | 0.00 | 0.54 | 0.00 | 60 | 1017.7 |
| 20260503234903 | 85 | 0 | 0.0 | 0.0 | 0.00 | 0.54 | 0.00 | 60 | 1017.9 |
| 20260503234803 | 85 | 0 | 0.0 | 0.0 | 0.00 | 0.54 | 0.00 | 60 | 1017.8 |
| 20260503234703 | 85 | 308 | 0.0 | 1.0 | 0.00 | 0.54 | 0.00 | 60 | 1017.6 |
| 20260503234603 | 85 | 308 | 0.0 | 1.0 | 0.00 | 0.54 | 0.00 | 60 | 1017.8 |
| 20260503234503 | 85 | 308 | 0.0 | 1.0 | 0.00 | 0.55 | 0.00 | 60 | 1017.8 |
| 20260503234404 | 85 | 308 | 0.0 | 1.0 | 0.00 | 0.55 | 0.00 | 60 | 1017.6 |
| 20260503234303 | 85 | 308 | 0.0 | 1.0 | 0.00 | 0.55 | 0.00 | 60 | 1017.7 |
| 20260503234225 | 85 | 308 | 0.0 | 1.0 | 0.00 | 0.55 | 0.00 | 60 | 1017.7 |
| 20260503234103 | 85 | 308 | 0.0 | 1.0 | 0.00 | 0.55 | 0.00 | 60 | 1017.8 |
| 20260503234003 | 85 | 308 | 0.0 | 1.0 | 0.00 | 0.55 | 0.00 | 60 | 1017.5 |
| 20260503233925 | 85 | 308 | 0.0 | 1.0 | 0.00 | 0.56 | 0.00 | 60 | 1017.6 |
| 20260503233804 | 85 | 308 | 0.0 | 1.0 | 0.00 | 0.56 | 0.00 | 60 | 1017.7 |
| 20260503233703 | 85 | 308 | 0.0 | 1.0 | 0.00 | 0.57 | 0.00 | 60 | 1017.6 |
| 20260503233603 | 85 | 0 | 0.0 | 0.0 | 0.00 | 0.57 | 0.00 | 60 | 1017.7 |
| 20260503233503 | 85 | 0 | 0.0 | 0.0 | 0.00 | 0.57 | 0.00 | 60 | 1017.6 |
| 20260503233403 | 85 | 0 | 0.0 | 0.0 | 0.00 | 0.57 | 0.00 | 60 | 1017.6 |
| 20260503233303 | 85 | 0 | 0.0 | 0.0 | 0.00 | 0.57 | 0.00 | 60 | 1018.0 |
| 20260503233203 | 85 | 0 | 0.0 | 0.0 | 0.00 | 0.58 | 0.00 | 60 | 1017.7 |
| 20260503233103 | 85 | 0 | 0.0 | 0.0 | 0.00 | 0.58 | 0.00 | 60 | 1017.6 |
| 20260503233003 | 85 | 0 | 0.0 | 0.0 | 0.00 | 0.58 | 0.00 | 60 | 1017.6 |
| 20260503232903 | 85 | 0 | 0.0 | 0.0 | 0.00 | 0.58 | 0.00 | 60 | 1017.7 |
| 20260503232803 | 85 | 0 | 0.0 | 0.0 | 0.00 | 0.59 | 0.00 | 60 | 1017.5 |
| 20260503232703 | 85 | 0 | 0.0 | 0.0 | 0.00 | 0.59 | 0.00 | 60 | 1017.7 |
| 20260503232604 | 85 | 0 | 0.0 | 0.0 | 0.00 | 0.59 | 0.00 | 60 | 1017.5 |
| 20260503232503 | 85 | 0 | 0.0 | 0.0 | 0.00 | 0.60 | 0.00 | 60 | 1017.6 |
| 20260503232403 | 85 | 0 | 0.0 | 0.0 | 0.00 | 0.60 | 0.00 | 60 | 1017.4 |
| 20260503232324 | 85 | 0 | 0.0 | 0.0 | 0.00 | 0.60 | 0.00 | 60 | 1017.6 |
| 20260503232224 | 85 | 0 | 0.0 | 0.0 | 0.00 | 0.60 | 0.00 | 60 | 1017.5 |
| 20260503232126 | 85 | 0 | 0.0 | 0.0 | 0.00 | 0.61 | 0.00 | 60 | 1017.4 |
| 20260503232003 | 85 | 0 | 0.0 | 0.0 | 0.00 | 0.61 | 0.00 | 60 | 1017.5 |
| 20260503231903 | 85 | 0 | 0.0 | 0.0 | 0.00 | 0.61 | 0.00 | 60 | 1017.3 |
| 20260503231824 | 85 | 0 | 0.0 | 0.0 | 0.00 | 0.61 | 0.00 | 60 | 1017.5 |
| 20260503231724 | 85 | 0 | 0.0 | 0.0 | 0.00 | 0.62 | 0.00 | 60 | 1017.4 |
| 20260503231603 | 85 | 0 | 0.0 | 0.0 | 0.00 | 0.62 | 0.00 | 60 | 1017.3 |
| 20260503231503 | 85 | 0 | 0.0 | 0.0 | 0.00 | 0.62 | 0.00 | 60 | 1017.5 |
| 20260503231404 | 85 | 0 | 0.0 | 0.0 | 0.00 | 0.62 | 0.00 | 60 | 1017.4 |
| 20260503231303 | 85 | 0 | 0.0 | 0.0 | 0.00 | 0.63 | 0.00 | 60 | 1017.3 |
| 20260503231203 | 85 | 0 | 0.0 | 0.0 | 0.00 | 0.63 | 0.00 | 60 | 1017.3 |
| 20260503231103 | 85 | 0 | 0.0 | 0.0 | 0.00 | 0.63 | 0.00 | 60 | 1017.4 |
| 20260503231004 | 85 | 0 | 0.0 | 0.0 | 0.00 | 0.63 | 0.00 | 60 | 1017.4 |
| 20260503230903 | 85 | 0 | 0.0 | 0.0 | 0.00 | 0.63 | 0.00 | 60 | 1017.3 |
| 20260503230803 | 85 | 0 | 0.0 | 0.0 | 0.00 | 0.64 | 0.00 | 60 | 1017.4 |
| 20260503230724 | 85 | 0 | 0.0 | 0.0 | 0.00 | 0.64 | 0.00 | 60 | 1017.3 |
| 20260503230603 | 85 | 0 | 0.0 | 0.0 | 0.00 | 0.64 | 0.00 | 60 | 1017.3 |
| 20260503230505 | 85 | 0 | 0.0 | 0.0 | 0.00 | 0.65 | 0.00 | 60 | 1017.2 |
| 20260503230403 | 85 | 0 | 0.0 | 0.0 | 0.00 | 0.66 | 0.00 | 60 | 1017.4 |
| 20260503230303 | 85 | 0 | 0.0 | 0.0 | 0.00 | 0.66 | 0.00 | 60 | 1017.3 |
| 20260503230203 | 85 | 0 | 0.0 | 0.0 | 0.00 | 0.68 | 0.00 | 60 | 1017.3 |
| 20260503230103 | 85 | 0 | 0.0 | 0.0 | 0.00 | 0.70 | 0.00 | 60 | 1017.3 |
| 20260503230003 | 85 | 0 | 0.0 | 0.0 | 0.00 | 0.70 | 0.00 | 60 | 1017.5 |
| 20260503225904 | 85 | 0 | 0.0 | 0.0 | 0.00 | 0.70 | 0.00 | 60 | 1017.4 |
| 20260503225803 | 85 | 0 | 0.0 | 0.0 | 0.00 | 0.70 | 0.00 | 60 | 1017.4 |
| 20260503225704 | 85 | 0 | 0.0 | 0.0 | 0.00 | 0.70 | 0.00 | 60 | 1017.3 |
| 20260503225603 | 85 | 0 | 0.0 | 0.0 | 0.00 | 0.70 | 0.00 | 60 | 1017.2 |
| 20260503225503 | 85 | 0 | 0.0 | 0.0 | 0.00 | 0.70 | 0.00 | 60 | 1017.2 |
| 20260503225404 | 85 | 0 | 0.0 | 0.0 | 0.00 | 0.70 | 0.00 | 60 | 1017.1 |
| 20260503225304 | 85 | 0 | 0.0 | 0.0 | 0.00 | 0.70 | 0.00 | 60 | 1017.3 |
| 20260503225203 | 85 | 0 | 0.0 | 0.0 | 0.00 | 0.70 | 0.00 | 60 | 1017.2 |
| 20260503225103 | 85 | 0 | 0.0 | 0.0 | 0.00 | 0.70 | 0.00 | 60 | 1017.4 |
| 20260503225003 | 85 | 0 | 0.0 | 0.0 | 0.00 | 0.70 | 0.00 | 60 | 1017.2 |
| 20260503224924 | 85 | 0 | 0.0 | 0.0 | 0.00 | 0.70 | 0.00 | 60 | 1017.1 |
| 20260503224803 | 85 | 0 | 0.0 | 0.0 | 0.00 | 0.70 | 0.00 | 60 | 1017.2 |
| 20260503224705 | 85 | 0 | 0.0 | 0.0 | 0.00 | 0.70 | 0.00 | 60 | 1017.1 |
| 20260503224603 | 85 | 0 | 0.0 | 0.0 | 0.00 | 0.70 | 0.00 | 60 | 1017.3 |
| 20260503224503 | 85 | 0 | 0.0 | 0.0 | 0.00 | 0.70 | 0.00 | 60 | 1017.2 |
| 20260503224425 | 85 | 0 | 0.0 | 0.0 | 0.00 | 0.70 | 0.00 | 60 | 1017.2 |
| 20260503224303 | 85 | 0 | 0.0 | 0.0 | 0.00 | 0.70 | 0.00 | 60 | 1017.2 |
| 20260503224203 | 85 | 0 | 0.0 | 0.0 | 0.00 | 0.70 | 0.00 | 60 | 1017.2 |
| 20260503224124 | 85 | 0 | 0.0 | 0.0 | 0.00 | 0.70 | 0.00 | 60 | 1017.1 |
| 20260503224024 | 85 | 0 | 0.0 | 0.0 | 0.00 | 0.70 | 0.00 | 60 | 1017.3 |
| 20260503223903 | 85 | 0 | 0.0 | 0.0 | 0.00 | 0.70 | 0.00 | 60 | 1017.1 |
| 20260503223803 | 85 | 0 | 0.0 | 0.0 | 0.00 | 0.70 | 0.00 | 60 | 1017.1 |
| 20260503223703 | 85 | 0 | 0.0 | 0.0 | 0.00 | 0.70 | 0.00 | 60 | 1017.1 |
| 20260503223603 | 85 | 0 | 0.0 | 0.0 | 0.00 | 0.70 | 0.00 | 60 | 1017.0 |
| 20260503223503 | 85 | 0 | 0.0 | 0.0 | 0.00 | 0.70 | 0.00 | 60 | 1017.0 |
| 20260503223403 | 85 | 0 | 0.0 | 0.0 | 0.00 | 0.70 | 0.00 | 60 | 1017.1 |
| 20260503223303 | 85 | 0 | 0.0 | 0.0 | 0.00 | 0.70 | 0.00 | 60 | 1017.1 |
| 20260503223203 | 85 | 0 | 0.0 | 0.0 | 0.00 | 0.70 | 0.00 | 60 | 1017.1 |
| 20260503223124 | 85 | 0 | 0.0 | 0.0 | 0.00 | 0.70 | 0.00 | 60 | 1017.1 |
| 20260503223003 | 85 | 0 | 0.0 | 0.0 | 0.00 | 0.70 | 0.00 | 60 | 1017.0 |
| 20260503222905 | 85 | 0 | 0.0 | 0.0 | 0.00 | 0.70 | 0.00 | 60 | 1017.0 |
| 20260503222803 | 85 | 0 | 0.0 | 0.0 | 0.00 | 0.70 | 0.00 | 60 | 1017.0 |
| 20260503222724 | 85 | 0 | 0.0 | 0.0 | 0.00 | 0.70 | 0.00 | 60 | 1017.0 |
| 20260503222603 | 85 | 0 | 0.0 | 0.0 | 0.00 | 0.70 | 0.00 | 60 | 1017.1 |
| 20260503222503 | 85 | 0 | 0.0 | 0.0 | 0.00 | 0.70 | 0.00 | 60 | 1017.1 |
| 20260503222403 | 85 | 0 | 0.0 | 0.0 | 0.00 | 0.70 | 0.00 | 60 | 1017.1 |
| 20260503222304 | 85 | 0 | 0.0 | 0.0 | 0.00 | 0.70 | 0.00 | 60 | 1016.9 |
| 20260503222204 | 85 | 0 | 0.0 | 0.0 | 0.00 | 0.70 | 0.00 | 60 | 1016.9 |
| 20260503222103 | 85 | 0 | 0.0 | 0.0 | 0.00 | 0.70 | 0.00 | 60 | 1017.1 |
| 20260503222003 | 85 | 0 | 0.0 | 0.0 | 0.00 | 0.70 | 0.00 | 60 | 1017.0 |
| 20260503221903 | 85 | 0 | 0.0 | 0.0 | 0.00 | 0.70 | 0.00 | 60 | 1017.1 |
| 20260503221824 | 85 | 0 | 0.0 | 0.0 | 0.00 | 0.70 | 0.00 | 60 | 1017.0 |
| 20260503221703 | 85 | 0 | 0.0 | 0.0 | 0.00 | 0.70 | 0.00 | 60 | 1017.1 |
| 20260503221603 | 85 | 0 | 0.0 | 0.0 | 0.00 | 0.70 | 0.00 | 60 | 1016.9 |
| 20260503221503 | 85 | 0 | 0.0 | 0.0 | 0.00 | 0.70 | 0.00 | 60 | 1017.0 |
| 20260503221425 | 85 | 0 | 0.0 | 0.0 | 0.00 | 0.70 | 0.00 | 60 | 1016.9 |
| 20260503221305 | 85 | 0 | 0.0 | 0.0 | 0.00 | 0.70 | 0.00 | 60 | 1016.7 |
| 20260503221203 | 85 | 0 | 0.0 | 0.0 | 0.00 | 0.70 | 0.00 | 60 | 1016.9 |
| 20260503221103 | 85 | 0 | 0.0 | 0.0 | 0.00 | 0.70 | 0.00 | 60 | 1017.0 |
| 20260503221003 | 85 | 0 | 0.0 | 0.0 | 0.00 | 0.70 | 0.00 | 60 | 1016.9 |
| 20260503220903 | 85 | 0 | 0.0 | 0.0 | 0.00 | 0.70 | 0.00 | 60 | 1017.0 |
| 20260503220803 | 85 | 0 | 0.0 | 0.0 | 0.00 | 0.70 | 0.00 | 60 | 1017.0 |
| 20260503220703 | 85 | 0 | 0.0 | 0.0 | 0.00 | 0.70 | 0.00 | 60 | 1017.0 |
| 20260503220604 | 85 | 0 | 0.0 | 0.0 | 0.00 | 0.70 | 0.00 | 60 | 1017.0 |
| 20260503220503 | 85 | 0 | 0.0 | 0.0 | 0.00 | 0.70 | 0.00 | 60 | 1016.9 |
| 20260503220403 | 85 | 0 | 0.0 | 0.0 | 0.00 | 0.70 | 0.00 | 60 | 1016.9 |
| 20260503220303 | 85 | 0 | 0.0 | 0.0 | 0.00 | 0.70 | 0.00 | 60 | 1016.7 |
| 20260503220203 | 85 | 0 | 0.0 | 0.0 | 0.00 | 0.70 | 0.00 | 60 | 1016.7 |
| 20260503220103 | 85 | 0 | 0.0 | 0.0 | 0.00 | 0.70 | 0.00 | 60 | 1016.9 |
| 20260503220003 | 85 | 0 | 0.0 | 0.0 | 0.00 | 0.70 | 0.00 | 60 | 1017.0 |
| 20260503215903 | 85 | 0 | 0.0 | 0.0 | 0.00 | 0.70 | 0.00 | 60 | 1016.7 |
| 20260503215824 | 85 | 0 | 0.0 | 0.0 | 0.00 | 0.70 | 0.00 | 60 | 1016.9 |
| 20260503215703 | 85 | 0 | 0.0 | 0.0 | 0.00 | 0.70 | 0.00 | 60 | 1016.7 |
| 20260503215603 | 85 | 0 | 0.0 | 0.0 | 0.00 | 0.70 | 0.00 | 60 | 1016.6 |
| 20260503215505 | 85 | 0 | 0.0 | 0.0 | 0.00 | 0.70 | 0.00 | 60 | 1016.6 |
| 20260503215403 | 85 | 0 | 0.0 | 0.0 | 0.00 | 0.70 | 0.00 | 60 | 1016.7 |
| 20260503215304 | 85 | 0 | 0.0 | 0.0 | 0.00 | 0.70 | 0.00 | 60 | 1016.9 |
| 20260503215224 | 85 | 275 | 0.0 | 2.0 | 0.00 | 0.70 | 0.00 | 60 | 1016.9 |
| 20260503215103 | 85 | 275 | 0.0 | 2.0 | 0.00 | 0.70 | 0.00 | 60 | 1016.9 |
| 20260503215003 | 85 | 275 | 1.0 | 2.0 | 0.00 | 0.70 | 0.00 | 60 | 1016.6 |
| 20260503214903 | 85 | 273 | 1.0 | 2.0 | 0.00 | 0.70 | 0.00 | 60 | 1016.7 |
| 20260503214824 | 85 | 271 | 1.0 | 2.0 | 0.00 | 0.70 | 0.00 | 60 | 1016.7 |
| 20260503214703 | 85 | 268 | 1.0 | 3.0 | 0.00 | 0.70 | 0.00 | 60 | 1017.0 |
| 20260503214603 | 85 | 267 | 1.0 | 3.0 | 0.00 | 0.70 | 0.00 | 60 | 1016.7 |
| 20260503214524 | 85 | 267 | 2.0 | 3.0 | 0.00 | 0.70 | 0.00 | 60 | 1016.9 |
| 20260503214403 | 85 | 267 | 2.0 | 3.0 | 0.00 | 0.70 | 0.00 | 60 | 1016.9 |
| 20260503214303 | 85 | 267 | 2.0 | 3.0 | 0.00 | 0.70 | 0.00 | 60 | 1016.9 |
| 20260503214203 | 85 | 267 | 2.0 | 3.0 | 0.00 | 0.70 | 0.00 | 60 | 1016.7 |
| 20260503214103 | 85 | 265 | 2.0 | 3.0 | 0.00 | 0.70 | 0.00 | 60 | 1016.7 |
| 20260503214003 | 85 | 264 | 1.0 | 3.0 | 0.00 | 0.70 | 0.00 | 60 | 1017.0 |
| 20260503213905 | 85 | 264 | 1.0 | 3.0 | 0.00 | 0.70 | 0.00 | 60 | 1016.9 |
| 20260503213803 | 85 | 264 | 1.0 | 3.0 | 0.00 | 0.70 | 0.00 | 60 | 1016.7 |
| 20260503213703 | 85 | 265 | 1.0 | 2.0 | 0.00 | 0.70 | 0.00 | 60 | 1016.9 |
| 20260503213603 | 85 | 267 | 1.0 | 2.0 | 0.00 | 0.70 | 0.00 | 60 | 1016.7 |
| 20260503213503 | 85 | 268 | 0.0 | 2.0 | 0.00 | 0.70 | 0.00 | 60 | 1016.7 |
| 20260503213403 | 85 | 267 | 0.0 | 1.0 | 0.00 | 0.70 | 0.00 | 60 | 1016.9 |
| 20260503213324 | 85 | 266 | 0.0 | 1.0 | 0.00 | 0.70 | 0.00 | 60 | 1016.9 |
| 20260503213203 | 85 | 265 | 0.0 | 1.0 | 0.00 | 0.70 | 0.00 | 60 | 1016.9 |
| 20260503213103 | 85 | 0 | 0.0 | 0.0 | 0.00 | 0.70 | 0.00 | 60 | 1016.9 |
| 20260503213003 | 85 | 0 | 0.0 | 0.0 | 0.00 | 0.70 | 0.00 | 60 | 1016.9 |
| 20260503212904 | 85 | 0 | 0.0 | 0.0 | 0.00 | 0.70 | 0.00 | 60 | 1016.6 |
| 20260503212803 | 85 | 0 | 0.0 | 0.0 | 0.00 | 0.70 | 0.00 | 60 | 1016.6 |
| 20260503212703 | 85 | 0 | 0.0 | 0.0 | 0.00 | 0.70 | 0.00 | 60 | 1016.5 |
| 20260503212603 | 85 | 0 | 0.0 | 0.0 | 0.00 | 0.70 | 0.00 | 60 | 1016.7 |
| 20260503212524 | 85 | 0 | 0.0 | 0.0 | 0.00 | 0.70 | 0.00 | 60 | 1016.6 |
| 20260503212403 | 85 | 0 | 0.0 | 0.0 | 0.00 | 0.70 | 0.00 | 60 | 1016.6 |
| 20260503212305 | 85 | 0 | 0.0 | 0.0 | 0.00 | 0.70 | 0.00 | 60 | 1016.6 |
| 20260503212225 | 85 | 0 | 0.0 | 0.0 | 0.00 | 0.70 | 0.00 | 60 | 1016.7 |
| 20260503212103 | 85 | 0 | 0.0 | 0.0 | 0.00 | 0.70 | 0.00 | 60 | 1016.7 |
| 20260503212003 | 85 | 0 | 0.0 | 0.0 | 0.00 | 0.70 | 0.00 | 60 | 1016.7 |
| 20260503211903 | 85 | 0 | 0.0 | 0.0 | 0.00 | 0.70 | 0.00 | 60 | 1016.9 |
| 20260503211803 | 85 | 240 | 0.0 | 1.0 | 0.00 | 0.70 | 0.00 | 60 | 1016.9 |
| 20260503211703 | 85 | 240 | 0.0 | 1.0 | 0.00 | 0.70 | 0.00 | 60 | 1016.9 |
| 20260503211603 | 85 | 240 | 0.0 | 1.0 | 0.00 | 0.70 | 0.00 | 60 | 1016.9 |
| 20260503211503 | 85 | 240 | 0.0 | 1.0 | 0.00 | 0.70 | 0.00 | 60 | 1016.7 |
| 20260503211403 | 85 | 237 | 0.0 | 1.0 | 0.00 | 0.70 | 0.00 | 60 | 1017.0 |
| 20260503211303 | 85 | 237 | 0.0 | 1.0 | 0.00 | 0.70 | 0.00 | 60 | 1017.1 |
| 20260503211203 | 85 | 237 | 0.0 | 1.0 | 0.00 | 0.70 | 0.00 | 60 | 1017.1 |
| 20260503211103 | 85 | 237 | 0.0 | 1.0 | 0.00 | 0.70 | 0.00 | 60 | 1016.9 |
| 20260503211003 | 85 | 232 | 0.0 | 1.0 | 0.00 | 0.70 | 0.00 | 60 | 1017.0 |
| 20260503210903 | 85 | 232 | 0.0 | 1.0 | 0.00 | 0.71 | 0.00 | 60 | 1017.0 |
| 20260503210824 | 85 | 232 | 0.0 | 1.0 | 0.00 | 0.71 | 0.00 | 60 | 1017.0 |
| 20260503210703 | 85 | 230 | 0.0 | 1.0 | 0.00 | 0.71 | 0.00 | 60 | 1016.9 |
| 20260503210604 | 85 | 224 | 0.0 | 1.0 | 0.00 | 0.71 | 0.00 | 60 | 1017.2 |
| 20260503210525 | 85 | 220 | 0.0 | 1.0 | 0.00 | 0.71 | 0.00 | 60 | 1017.0 |
| 20260503210403 | 85 | 221 | 0.0 | 1.0 | 0.00 | 0.72 | 0.00 | 60 | 1017.0 |
| 20260503210303 | 85 | 221 | 0.0 | 1.0 | 0.00 | 0.72 | 0.00 | 60 | 1017.0 |
| 20260503210203 | 85 | 221 | 0.0 | 1.0 | 0.00 | 0.73 | 0.00 | 60 | 1016.9 |
| 20260503210103 | 85 | 221 | 0.0 | 1.0 | 0.00 | 0.73 | 0.00 | 60 | 1017.1 |
| 20260503210024 | 85 | 216 | 0.0 | 1.0 | 0.00 | 0.74 | 0.00 | 60 | 1017.0 |
| 20260503205904 | 85 | 272 | 0.0 | 1.0 | 0.00 | 0.76 | 0.00 | 60 | 1017.0 |
| 20260503205824 | 85 | 272 | 0.0 | 1.0 | 0.00 | 0.77 | 0.00 | 60 | 1017.1 |
| 20260503205724 | 85 | 272 | 0.0 | 1.0 | 0.00 | 0.77 | 0.00 | 60 | 1016.9 |
| 20260503205624 | 85 | 268 | 0.0 | 2.0 | 0.00 | 0.77 | 0.00 | 60 | 1016.9 |
| 20260503205503 | 85 | 268 | 1.0 | 2.0 | 0.00 | 0.77 | 0.00 | 60 | 1017.0 |
| 20260503205403 | 85 | 270 | 1.0 | 2.0 | 0.00 | 0.77 | 0.00 | 60 | 1016.9 |
| 20260503205304 | 85 | 271 | 1.0 | 2.0 | 0.00 | 0.77 | 0.00 | 60 | 1016.9 |
| 20260503205224 | 85 | 272 | 1.0 | 2.0 | 0.00 | 0.77 | 0.00 | 60 | 1017.0 |
| 20260503205103 | 85 | 273 | 1.0 | 2.0 | 0.00 | 0.77 | 0.00 | 60 | 1017.0 |
| 20260503205003 | 85 | 273 | 1.0 | 2.0 | 0.00 | 0.77 | 0.00 | 60 | 1017.0 |
| 20260503204903 | 85 | 273 | 1.0 | 2.0 | 0.00 | 0.77 | 0.00 | 60 | 1016.9 |
| 20260503204805 | 85 | 273 | 1.0 | 2.0 | 0.00 | 0.77 | 0.00 | 60 | 1016.9 |
| 20260503204703 | 85 | 273 | 1.0 | 2.0 | 0.00 | 0.77 | 0.00 | 60 | 1017.0 |
| 20260503204624 | 85 | 274 | 1.0 | 2.0 | 0.00 | 0.77 | 0.00 | 60 | 1017.1 |
| 20260503204503 | 85 | 277 | 1.0 | 2.0 | 0.00 | 0.77 | 0.00 | 60 | 1016.9 |
| 20260503204403 | 85 | 278 | 0.0 | 2.0 | 0.00 | 0.77 | 0.00 | 60 | 1016.9 |
| 20260503204303 | 85 | 279 | 0.0 | 2.0 | 0.00 | 0.77 | 0.00 | 60 | 1016.9 |
| 20260503204203 | 85 | 279 | 0.0 | 1.0 | 0.00 | 0.77 | 0.00 | 60 | 1017.1 |
| 20260503204124 | 85 | 278 | 0.0 | 1.0 | 0.00 | 0.77 | 0.00 | 60 | 1016.9 |
| 20260503204003 | 85 | 269 | 0.0 | 2.0 | 0.00 | 0.77 | 0.00 | 60 | 1016.9 |
| 20260503203903 | 85 | 268 | 1.0 | 2.0 | 0.00 | 0.77 | 0.00 | 60 | 1017.1 |
| 20260503203803 | 85 | 266 | 1.0 | 2.0 | 0.00 | 0.77 | 0.00 | 60 | 1017.1 |
| 20260503203703 | 85 | 267 | 1.0 | 3.0 | 0.00 | 0.77 | 0.00 | 60 | 1017.1 |
| 20260503203603 | 85 | 266 | 1.0 | 3.0 | 0.00 | 0.77 | 0.00 | 60 | 1017.1 |
| 20260503203503 | 85 | 266 | 1.0 | 3.0 | 0.00 | 0.77 | 0.00 | 60 | 1017.0 |
| 20260503203424 | 85 | 266 | 1.0 | 3.0 | 0.00 | 0.77 | 0.00 | 60 | 1017.1 |
| 20260503203303 | 85 | 265 | 1.0 | 3.0 | 0.00 | 0.77 | 0.00 | 60 | 1017.1 |
| 20260503203203 | 85 | 265 | 1.0 | 3.0 | 0.00 | 0.77 | 0.00 | 60 | 1016.9 |
| 20260503203103 | 85 | 264 | 1.0 | 3.0 | 0.00 | 0.77 | 0.00 | 60 | 1017.0 |
| 20260503203004 | 85 | 265 | 1.0 | 3.0 | 0.00 | 0.77 | 0.00 | 60 | 1017.0 |
| 20260503202903 | 85 | 265 | 1.0 | 3.0 | 0.00 | 0.77 | 0.00 | 60 | 1017.1 |
| 20260503202805 | 85 | 266 | 1.0 | 3.0 | 0.00 | 0.77 | 0.00 | 60 | 1017.0 |
| 20260503202703 | 85 | 265 | 0.0 | 3.0 | 0.00 | 0.77 | 0.00 | 60 | 1017.0 |
| 20260503202603 | 85 | 264 | 0.0 | 2.0 | 0.00 | 0.77 | 0.00 | 60 | 1016.9 |
| 20260503202503 | 85 | 258 | 0.0 | 1.0 | 0.00 | 0.77 | 0.00 | 60 | 1017.0 |
| 20260503202403 | 85 | 260 | 0.0 | 2.0 | 0.00 | 0.77 | 0.00 | 60 | 1016.7 |
| 20260503202325 | 85 | 261 | 1.0 | 2.0 | 0.00 | 0.77 | 0.00 | 60 | 1016.7 |
| 20260503202203 | 85 | 261 | 1.0 | 2.0 | 0.00 | 0.77 | 0.00 | 60 | 1017.0 |
| 20260503202124 | 85 | 262 | 1.0 | 2.0 | 0.00 | 0.77 | 0.00 | 60 | 1017.0 |
| 20260503202003 | 85 | 263 | 1.0 | 2.0 | 0.00 | 0.77 | 0.00 | 60 | 1017.0 |
| 20260503201903 | 85 | 262 | 1.0 | 2.0 | 0.00 | 0.77 | 0.00 | 60 | 1016.9 |
| 20260503201803 | 85 | 262 | 1.0 | 2.0 | 0.00 | 0.77 | 0.00 | 60 | 1017.0 |
| 20260503201703 | 85 | 262 | 1.0 | 2.0 | 0.00 | 0.77 | 0.00 | 60 | 1017.0 |
| 20260503201603 | 85 | 261 | 1.0 | 2.0 | 0.00 | 0.77 | 0.00 | 60 | 1016.9 |
| 20260503201503 | 85 | 259 | 1.0 | 2.0 | 0.00 | 0.77 | 0.00 | 60 | 1016.9 |
| 20260503201403 | 85 | 254 | 1.0 | 2.0 | 0.00 | 0.77 | 0.00 | 60 | 1016.9 |
| 20260503201303 | 85 | 251 | 1.0 | 2.0 | 0.00 | 0.77 | 0.00 | 60 | 1017.1 |
| 20260503201204 | 85 | 241 | 1.0 | 2.0 | 0.00 | 0.77 | 0.00 | 60 | 1017.0 |
| 20260503201103 | 85 | 237 | 1.0 | 2.0 | 0.00 | 0.77 | 0.00 | 60 | 1016.9 |
| 20260503201003 | 85 | 234 | 1.0 | 2.0 | 0.00 | 0.77 | 0.00 | 60 | 1017.1 |
| 20260503200903 | 85 | 232 | 1.0 | 2.0 | 0.00 | 0.77 | 0.00 | 60 | 1017.1 |
| 20260503200803 | 85 | 232 | 1.0 | 2.0 | 0.00 | 0.77 | 0.00 | 60 | 1017.0 |
| 20260503200703 | 85 | 232 | 1.0 | 2.0 | 0.00 | 0.77 | 0.00 | 60 | 1017.1 |
| 20260503200624 | 85 | 231 | 1.0 | 2.0 | 0.00 | 0.77 | 0.00 | 60 | 1017.1 |
| 20260503200503 | 85 | 227 | 1.0 | 2.0 | 0.00 | 0.77 | 0.00 | 60 | 1017.0 |
| 20260503200403 | 85 | 225 | 0.0 | 2.0 | 0.00 | 0.77 | 0.00 | 60 | 1017.1 |
| 20260503200303 | 85 | 221 | 0.0 | 2.0 | 0.00 | 0.77 | 0.00 | 60 | 1017.0 |
| 20260503200203 | 85 | 237 | 0.0 | 1.0 | 0.00 | 0.77 | 0.00 | 60 | 1016.9 |
| 20260503200003 | 85 | 239 | 0.0 | 1.0 | 0.00 | 0.77 | 0.00 | 60 | 1017.1 |
| 20260503195903 | 85 | 0 | 0.0 | 0.0 | 0.00 | 0.77 | 0.00 | 60 | 1017.1 |
| 20260503195803 | 85 | 0 | 0.0 | 0.0 | 0.00 | 0.77 | 0.00 | 60 | 1017.0 |
| 20260503195703 | 85 | 0 | 0.0 | 0.0 | 0.00 | 0.77 | 0.00 | 60 | 1017.2 |
| 20260503195624 | 85 | 0 | 0.0 | 0.0 | 0.00 | 0.77 | 0.00 | 60 | 1017.1 |
| 20260503195524 | 85 | 0 | 0.0 | 0.0 | 0.00 | 0.77 | 0.00 | 60 | 1017.2 |
| 20260503195404 | 85 | 47 | 0.0 | 1.0 | 0.00 | 0.77 | 0.00 | 60 | 1017.1 |
| 20260503195304 | 85 | 47 | 0.0 | 1.0 | 0.00 | 0.77 | 0.00 | 60 | 1017.1 |
| 20260503195203 | 85 | 47 | 0.0 | 1.0 | 0.00 | 0.77 | 0.00 | 60 | 1016.9 |
| 20260503195103 | 85 | 47 | 0.0 | 1.0 | 0.00 | 0.77 | 0.00 | 60 | 1017.2 |
| 20260503195003 | 85 | 47 | 0.0 | 1.0 | 0.00 | 0.77 | 0.00 | 60 | 1017.0 |
| 20260503194924 | 85 | 47 | 0.0 | 1.0 | 0.00 | 0.77 | 0.00 | 60 | 1017.0 |
| 20260503194803 | 85 | 47 | 0.0 | 1.0 | 0.00 | 0.77 | 0.00 | 60 | 1017.1 |
| 20260503194703 | 85 | 47 | 0.0 | 1.0 | 0.00 | 0.77 | 0.00 | 60 | 1017.1 |
| 20260503194603 | 85 | 47 | 0.0 | 1.0 | 0.00 | 0.77 | 0.00 | 60 | 1017.2 |
| 20260503194525 | 85 | 47 | 0.0 | 1.0 | 0.00 | 0.77 | 0.00 | 60 | 1017.1 |
| 20260503194403 | 85 | 0 | 0.0 | 0.0 | 0.00 | 0.77 | 0.00 | 60 | 1017.0 |
| 20260503194303 | 85 | 0 | 0.0 | 0.0 | 0.00 | 0.77 | 0.00 | 60 | 1017.1 |
| 20260503194203 | 85 | 0 | 0.0 | 0.0 | 0.00 | 0.77 | 0.00 | 60 | 1017.2 |
| 20260503194103 | 85 | 0 | 0.0 | 0.0 | 0.00 | 0.77 | 0.00 | 60 | 1017.1 |
| 20260503194003 | 85 | 0 | 0.0 | 0.0 | 0.00 | 0.77 | 0.00 | 60 | 1017.1 |
| 20260503193903 | 85 | 0 | 0.0 | 0.0 | 0.00 | 0.77 | 0.00 | 60 | 1017.2 |
| 20260503193803 | 85 | 0 | 0.0 | 0.0 | 0.00 | 0.77 | 0.00 | 60 | 1017.2 |
| 20260503193703 | 85 | 0 | 0.0 | 0.0 | 0.00 | 0.77 | 0.00 | 60 | 1017.1 |
| 20260503193603 | 85 | 0 | 0.0 | 0.0 | 0.00 | 0.77 | 0.00 | 60 | 1017.1 |
| 20260503193503 | 85 | 0 | 0.0 | 0.0 | 0.00 | 0.77 | 0.00 | 60 | 1017.1 |
| 20260503193403 | 85 | 83 | 0.0 | 1.0 | 0.00 | 0.77 | 0.00 | 60 | 1017.2 |
| 20260503193305 | 85 | 83 | 0.0 | 1.0 | 0.00 | 0.77 | 0.00 | 60 | 1017.1 |
| 20260503193203 | 85 | 83 | 0.0 | 1.0 | 0.00 | 0.77 | 0.00 | 60 | 1017.1 |
| 20260503193124 | 85 | 83 | 0.0 | 1.0 | 0.00 | 0.77 | 0.00 | 60 | 1017.2 |
| 20260503193003 | 85 | 83 | 0.0 | 1.0 | 0.00 | 0.77 | 0.00 | 60 | 1017.1 |
| 20260503192903 | 85 | 83 | 0.0 | 1.0 | 0.00 | 0.77 | 0.00 | 60 | 1017.2 |
| 20260503192803 | 85 | 83 | 0.0 | 1.0 | 0.00 | 0.77 | 0.00 | 60 | 1017.2 |
| 20260503192703 | 85 | 83 | 0.0 | 1.0 | 0.00 | 0.77 | 0.00 | 60 | 1017.1 |
| 20260503192603 | 85 | 83 | 0.0 | 1.0 | 0.00 | 0.77 | 0.00 | 60 | 1017.3 |
| 20260503192503 | 85 | 83 | 0.0 | 1.0 | 0.00 | 0.77 | 0.00 | 60 | 1017.1 |
| 20260503192403 | 85 | 79 | 0.0 | 1.0 | 0.00 | 0.77 | 0.00 | 60 | 1017.1 |
| 20260503192305 | 85 | 0 | 0.0 | 0.0 | 0.00 | 0.77 | 0.00 | 60 | 1017.0 |
| 20260503192203 | 85 | 70 | 0.0 | 1.0 | 0.00 | 0.77 | 0.00 | 60 | 1017.1 |